<?xml version="1.0" encoding="UTF-8" standalone="no" ?>
<gpx xmlns="http://www.topografix.com/GPX/1/1" xmlns:xsi="http://www.w3.org/2001/XMLSchema-instance" xsi:schemaLocation="http://www.topografix.com/GPX/1/1 http://www.topografix.com/GPX/1/1/gpx.xsd" version="1.1" creator="VisuGPX - https://www.visugpx.com">
  <metadata>
    <name>Cyclo 41kms</name>
  </metadata>
  <trk>
    <name><![CDATA[Rando 2023-9233931]]></name>
    <trkseg>
      <trkpt lat="47.04192" lon="-0.88651">
        <ele>107</ele>
        <time>2023-05-08T19:44:22Z</time>
      </trkpt>
      <trkpt lat="47.04206" lon="-0.88515">
        <ele>106</ele>
        <time>2023-05-08T19:44:39Z</time>
      </trkpt>
      <trkpt lat="47.04159" lon="-0.88508">
        <ele>107</ele>
        <time>2023-05-08T19:44:47Z</time>
      </trkpt>
      <trkpt lat="47.04077" lon="-0.88503">
        <ele>111</ele>
        <time>2023-05-08T19:45:02Z</time>
      </trkpt>
      <trkpt lat="47.04008" lon="-0.88509">
        <ele>112</ele>
        <time>2023-05-08T19:45:14Z</time>
      </trkpt>
      <trkpt lat="47.03951" lon="-0.88518">
        <ele>113</ele>
        <time>2023-05-08T19:45:24Z</time>
      </trkpt>
      <trkpt lat="47.0395" lon="-0.88528">
        <ele>113</ele>
        <time>2023-05-08T19:45:25Z</time>
      </trkpt>
      <trkpt lat="47.03948" lon="-0.88537">
        <ele>113</ele>
        <time>2023-05-08T19:45:27Z</time>
      </trkpt>
      <trkpt lat="47.03944" lon="-0.88544">
        <ele>113</ele>
        <time>2023-05-08T19:45:28Z</time>
      </trkpt>
      <trkpt lat="47.03938" lon="-0.88549">
        <ele>113</ele>
        <time>2023-05-08T19:45:29Z</time>
      </trkpt>
      <trkpt lat="47.03932" lon="-0.88552">
        <ele>113</ele>
        <time>2023-05-08T19:45:30Z</time>
      </trkpt>
      <trkpt lat="47.03925" lon="-0.88551">
        <ele>113</ele>
        <time>2023-05-08T19:45:31Z</time>
      </trkpt>
      <trkpt lat="47.03918" lon="-0.88547">
        <ele>113</ele>
        <time>2023-05-08T19:45:33Z</time>
      </trkpt>
      <trkpt lat="47.03913" lon="-0.8854">
        <ele>113</ele>
        <time>2023-05-08T19:45:34Z</time>
      </trkpt>
      <trkpt lat="47.0391" lon="-0.88531">
        <ele>113</ele>
        <time>2023-05-08T19:45:35Z</time>
      </trkpt>
      <trkpt lat="47.03909" lon="-0.88521">
        <ele>113</ele>
        <time>2023-05-08T19:45:36Z</time>
      </trkpt>
      <trkpt lat="47.03888" lon="-0.88521">
        <ele>114</ele>
        <time>2023-05-08T19:45:40Z</time>
      </trkpt>
      <trkpt lat="47.03324" lon="-0.88445">
        <ele>120</ele>
        <time>2023-05-08T19:47:21Z</time>
      </trkpt>
      <trkpt lat="47.03282" lon="-0.88434">
        <ele>121</ele>
        <time>2023-05-08T19:47:28Z</time>
      </trkpt>
      <trkpt lat="47.03189" lon="-0.88404">
        <ele>124</ele>
        <time>2023-05-08T19:47:45Z</time>
      </trkpt>
      <trkpt lat="47.03158" lon="-0.88389">
        <ele>124</ele>
        <time>2023-05-08T19:47:51Z</time>
      </trkpt>
      <trkpt lat="47.03134" lon="-0.88372">
        <ele>125</ele>
        <time>2023-05-08T19:47:56Z</time>
      </trkpt>
      <trkpt lat="47.03091" lon="-0.88338">
        <ele>125</ele>
        <time>2023-05-08T19:48:05Z</time>
      </trkpt>
      <trkpt lat="47.03044" lon="-0.88296">
        <ele>126</ele>
        <time>2023-05-08T19:48:14Z</time>
      </trkpt>
      <trkpt lat="47.02946" lon="-0.882">
        <ele>127</ele>
        <time>2023-05-08T19:48:35Z</time>
      </trkpt>
      <trkpt lat="47.02929" lon="-0.88188">
        <ele>127</ele>
        <time>2023-05-08T19:48:39Z</time>
      </trkpt>
      <trkpt lat="47.02866" lon="-0.88149">
        <ele>128</ele>
        <time>2023-05-08T19:48:51Z</time>
      </trkpt>
      <trkpt lat="47.02808" lon="-0.88116">
        <ele>128</ele>
        <time>2023-05-08T19:49:02Z</time>
      </trkpt>
      <trkpt lat="47.02778" lon="-0.88105">
        <ele>128</ele>
        <time>2023-05-08T19:49:07Z</time>
      </trkpt>
      <trkpt lat="47.02718" lon="-0.88093">
        <ele>127</ele>
        <time>2023-05-08T19:49:18Z</time>
      </trkpt>
      <trkpt lat="47.02641" lon="-0.88093">
        <ele>126</ele>
        <time>2023-05-08T19:49:32Z</time>
      </trkpt>
      <trkpt lat="47.0244" lon="-0.88104">
        <ele>126</ele>
        <time>2023-05-08T19:50:08Z</time>
      </trkpt>
      <trkpt lat="47.02399" lon="-0.8811">
        <ele>126</ele>
        <time>2023-05-08T19:50:15Z</time>
      </trkpt>
      <trkpt lat="47.02339" lon="-0.88128">
        <ele>126</ele>
        <time>2023-05-08T19:50:26Z</time>
      </trkpt>
      <trkpt lat="47.02307" lon="-0.88141">
        <ele>126</ele>
        <time>2023-05-08T19:50:32Z</time>
      </trkpt>
      <trkpt lat="47.02286" lon="-0.88154">
        <ele>126</ele>
        <time>2023-05-08T19:50:36Z</time>
      </trkpt>
      <trkpt lat="47.02224" lon="-0.88196">
        <ele>126</ele>
        <time>2023-05-08T19:50:48Z</time>
      </trkpt>
      <trkpt lat="47.02198" lon="-0.88217">
        <ele>127</ele>
        <time>2023-05-08T19:50:53Z</time>
      </trkpt>
      <trkpt lat="47.02155" lon="-0.88258">
        <ele>127</ele>
        <time>2023-05-08T19:51:02Z</time>
      </trkpt>
      <trkpt lat="47.02122" lon="-0.88284">
        <ele>128</ele>
        <time>2023-05-08T19:51:09Z</time>
      </trkpt>
      <trkpt lat="47.02099" lon="-0.88299">
        <ele>128</ele>
        <time>2023-05-08T19:51:14Z</time>
      </trkpt>
      <trkpt lat="47.02077" lon="-0.8831">
        <ele>128</ele>
        <time>2023-05-08T19:51:18Z</time>
      </trkpt>
      <trkpt lat="47.02044" lon="-0.88321">
        <ele>129</ele>
        <time>2023-05-08T19:51:24Z</time>
      </trkpt>
      <trkpt lat="47.02011" lon="-0.88326">
        <ele>131</ele>
        <time>2023-05-08T19:51:30Z</time>
      </trkpt>
      <trkpt lat="47.01987" lon="-0.88326">
        <ele>131</ele>
        <time>2023-05-08T19:51:34Z</time>
      </trkpt>
      <trkpt lat="47.01945" lon="-0.88319">
        <ele>133</ele>
        <time>2023-05-08T19:51:41Z</time>
      </trkpt>
      <trkpt lat="47.01867" lon="-0.88291">
        <ele>133</ele>
        <time>2023-05-08T19:51:56Z</time>
      </trkpt>
      <trkpt lat="47.01821" lon="-0.88282">
        <ele>133</ele>
        <time>2023-05-08T19:52:04Z</time>
      </trkpt>
      <trkpt lat="47.01793" lon="-0.88281">
        <ele>133</ele>
        <time>2023-05-08T19:52:09Z</time>
      </trkpt>
      <trkpt lat="47.0175" lon="-0.88287">
        <ele>133</ele>
        <time>2023-05-08T19:52:17Z</time>
      </trkpt>
      <trkpt lat="47.01727" lon="-0.88297">
        <ele>134</ele>
        <time>2023-05-08T19:52:21Z</time>
      </trkpt>
      <trkpt lat="47.01722" lon="-0.88308">
        <ele>134</ele>
        <time>2023-05-08T19:52:23Z</time>
      </trkpt>
      <trkpt lat="47.01717" lon="-0.88311">
        <ele>134</ele>
        <time>2023-05-08T19:52:23Z</time>
      </trkpt>
      <trkpt lat="47.01711" lon="-0.88311">
        <ele>134</ele>
        <time>2023-05-08T19:52:25Z</time>
      </trkpt>
      <trkpt lat="47.01706" lon="-0.88308">
        <ele>134</ele>
        <time>2023-05-08T19:52:26Z</time>
      </trkpt>
      <trkpt lat="47.01702" lon="-0.88304">
        <ele>134</ele>
        <time>2023-05-08T19:52:26Z</time>
      </trkpt>
      <trkpt lat="47.01686" lon="-0.88303">
        <ele>134</ele>
        <time>2023-05-08T19:52:29Z</time>
      </trkpt>
      <trkpt lat="47.01582" lon="-0.8833">
        <ele>134</ele>
        <time>2023-05-08T19:52:48Z</time>
      </trkpt>
      <trkpt lat="47.01505" lon="-0.88346">
        <ele>135</ele>
        <time>2023-05-08T19:53:02Z</time>
      </trkpt>
      <trkpt lat="47.01382" lon="-0.88379">
        <ele>134</ele>
        <time>2023-05-08T19:53:24Z</time>
      </trkpt>
      <trkpt lat="47.01331" lon="-0.88396">
        <ele>134</ele>
        <time>2023-05-08T19:53:33Z</time>
      </trkpt>
      <trkpt lat="47.01276" lon="-0.88418">
        <ele>135</ele>
        <time>2023-05-08T19:53:44Z</time>
      </trkpt>
      <trkpt lat="47.01154" lon="-0.88475">
        <ele>136</ele>
        <time>2023-05-08T19:54:06Z</time>
      </trkpt>
      <trkpt lat="47.01051" lon="-0.88535">
        <ele>134</ele>
        <time>2023-05-08T19:54:26Z</time>
      </trkpt>
      <trkpt lat="47.01022" lon="-0.88553">
        <ele>133</ele>
        <time>2023-05-08T19:54:32Z</time>
      </trkpt>
      <trkpt lat="47.01" lon="-0.88569">
        <ele>133</ele>
        <time>2023-05-08T19:54:36Z</time>
      </trkpt>
      <trkpt lat="47.0099" lon="-0.88543">
        <ele>133</ele>
        <time>2023-05-08T19:54:40Z</time>
      </trkpt>
      <trkpt lat="47.00989" lon="-0.88534">
        <ele>133</ele>
        <time>2023-05-08T19:54:41Z</time>
      </trkpt>
      <trkpt lat="47.00991" lon="-0.88517">
        <ele>134</ele>
        <time>2023-05-08T19:54:43Z</time>
      </trkpt>
      <trkpt lat="47.00998" lon="-0.88505">
        <ele>134</ele>
        <time>2023-05-08T19:54:45Z</time>
      </trkpt>
      <trkpt lat="47.01007" lon="-0.88501">
        <ele>134</ele>
        <time>2023-05-08T19:54:46Z</time>
      </trkpt>
      <trkpt lat="47.01133" lon="-0.88464">
        <ele>136</ele>
        <time>2023-05-08T19:55:09Z</time>
      </trkpt>
      <trkpt lat="47.0114" lon="-0.88459">
        <ele>136</ele>
        <time>2023-05-08T19:55:11Z</time>
      </trkpt>
      <trkpt lat="47.01148" lon="-0.8845">
        <ele>136</ele>
        <time>2023-05-08T19:55:12Z</time>
      </trkpt>
      <trkpt lat="47.01153" lon="-0.88438">
        <ele>136</ele>
        <time>2023-05-08T19:55:14Z</time>
      </trkpt>
      <trkpt lat="47.01155" lon="-0.88425">
        <ele>137</ele>
        <time>2023-05-08T19:55:16Z</time>
      </trkpt>
      <trkpt lat="47.01156" lon="-0.88414">
        <ele>137</ele>
        <time>2023-05-08T19:55:17Z</time>
      </trkpt>
      <trkpt lat="47.01153" lon="-0.884">
        <ele>137</ele>
        <time>2023-05-08T19:55:19Z</time>
      </trkpt>
      <trkpt lat="47.01133" lon="-0.88352">
        <ele>136</ele>
        <time>2023-05-08T19:55:26Z</time>
      </trkpt>
      <trkpt lat="47.01143" lon="-0.88343">
        <ele>136</ele>
        <time>2023-05-08T19:55:28Z</time>
      </trkpt>
      <trkpt lat="47.01283" lon="-0.88272">
        <ele>134</ele>
        <time>2023-05-08T19:55:54Z</time>
      </trkpt>
      <trkpt lat="47.01332" lon="-0.88247">
        <ele>133</ele>
        <time>2023-05-08T19:56:03Z</time>
      </trkpt>
      <trkpt lat="47.01347" lon="-0.88235">
        <ele>133</ele>
        <time>2023-05-08T19:56:06Z</time>
      </trkpt>
      <trkpt lat="47.0136" lon="-0.88221">
        <ele>133</ele>
        <time>2023-05-08T19:56:09Z</time>
      </trkpt>
      <trkpt lat="47.01375" lon="-0.88197">
        <ele>132</ele>
        <time>2023-05-08T19:56:13Z</time>
      </trkpt>
      <trkpt lat="47.01385" lon="-0.88176">
        <ele>132</ele>
        <time>2023-05-08T19:56:16Z</time>
      </trkpt>
      <trkpt lat="47.01405" lon="-0.88131">
        <ele>130</ele>
        <time>2023-05-08T19:56:23Z</time>
      </trkpt>
      <trkpt lat="47.01421" lon="-0.88087">
        <ele>129</ele>
        <time>2023-05-08T19:56:29Z</time>
      </trkpt>
      <trkpt lat="47.01426" lon="-0.88066">
        <ele>129</ele>
        <time>2023-05-08T19:56:32Z</time>
      </trkpt>
      <trkpt lat="47.0143" lon="-0.88044">
        <ele>128</ele>
        <time>2023-05-08T19:56:34Z</time>
      </trkpt>
      <trkpt lat="47.01451" lon="-0.87799">
        <ele>124</ele>
        <time>2023-05-08T19:57:04Z</time>
      </trkpt>
      <trkpt lat="47.01455" lon="-0.87736">
        <ele>122</ele>
        <time>2023-05-08T19:57:12Z</time>
      </trkpt>
      <trkpt lat="47.01451" lon="-0.87701">
        <ele>121</ele>
        <time>2023-05-08T19:57:16Z</time>
      </trkpt>
      <trkpt lat="47.01447" lon="-0.87681">
        <ele>121</ele>
        <time>2023-05-08T19:57:19Z</time>
      </trkpt>
      <trkpt lat="47.01437" lon="-0.87651">
        <ele>121</ele>
        <time>2023-05-08T19:57:23Z</time>
      </trkpt>
      <trkpt lat="47.01373" lon="-0.87477">
        <ele>116</ele>
        <time>2023-05-08T19:57:47Z</time>
      </trkpt>
      <trkpt lat="47.0136" lon="-0.87418">
        <ele>116</ele>
        <time>2023-05-08T19:57:54Z</time>
      </trkpt>
      <trkpt lat="47.01357" lon="-0.87391">
        <ele>117</ele>
        <time>2023-05-08T19:57:58Z</time>
      </trkpt>
      <trkpt lat="47.01357" lon="-0.87361">
        <ele>117</ele>
        <time>2023-05-08T19:58:01Z</time>
      </trkpt>
      <trkpt lat="47.01364" lon="-0.8728">
        <ele>119</ele>
        <time>2023-05-08T19:58:11Z</time>
      </trkpt>
      <trkpt lat="47.01371" lon="-0.87224">
        <ele>120</ele>
        <time>2023-05-08T19:58:18Z</time>
      </trkpt>
      <trkpt lat="47.01389" lon="-0.87079">
        <ele>124</ele>
        <time>2023-05-08T19:58:36Z</time>
      </trkpt>
      <trkpt lat="47.01389" lon="-0.87041">
        <ele>124</ele>
        <time>2023-05-08T19:58:41Z</time>
      </trkpt>
      <trkpt lat="47.0138" lon="-0.86935">
        <ele>125</ele>
        <time>2023-05-08T19:58:54Z</time>
      </trkpt>
      <trkpt lat="47.01372" lon="-0.86868">
        <ele>125</ele>
        <time>2023-05-08T19:59:02Z</time>
      </trkpt>
      <trkpt lat="47.0136" lon="-0.86821">
        <ele>126</ele>
        <time>2023-05-08T19:59:08Z</time>
      </trkpt>
      <trkpt lat="47.01346" lon="-0.86773">
        <ele>126</ele>
        <time>2023-05-08T19:59:14Z</time>
      </trkpt>
      <trkpt lat="47.01303" lon="-0.86647">
        <ele>128</ele>
        <time>2023-05-08T19:59:31Z</time>
      </trkpt>
      <trkpt lat="47.01283" lon="-0.8657">
        <ele>129</ele>
        <time>2023-05-08T19:59:41Z</time>
      </trkpt>
      <trkpt lat="47.01262" lon="-0.86517">
        <ele>129</ele>
        <time>2023-05-08T19:59:49Z</time>
      </trkpt>
      <trkpt lat="47.01182" lon="-0.86351">
        <ele>128</ele>
        <time>2023-05-08T20:00:14Z</time>
      </trkpt>
      <trkpt lat="47.01165" lon="-0.8632">
        <ele>128</ele>
        <time>2023-05-08T20:00:18Z</time>
      </trkpt>
      <trkpt lat="47.01146" lon="-0.86289">
        <ele>127</ele>
        <time>2023-05-08T20:00:23Z</time>
      </trkpt>
      <trkpt lat="47.01135" lon="-0.86278">
        <ele>126</ele>
        <time>2023-05-08T20:00:26Z</time>
      </trkpt>
      <trkpt lat="47.01123" lon="-0.86269">
        <ele>126</ele>
        <time>2023-05-08T20:00:28Z</time>
      </trkpt>
      <trkpt lat="47.01096" lon="-0.86255">
        <ele>126</ele>
        <time>2023-05-08T20:00:33Z</time>
      </trkpt>
      <trkpt lat="47.01085" lon="-0.86246">
        <ele>126</ele>
        <time>2023-05-08T20:00:36Z</time>
      </trkpt>
      <trkpt lat="47.01078" lon="-0.86234">
        <ele>125</ele>
        <time>2023-05-08T20:00:37Z</time>
      </trkpt>
      <trkpt lat="47.01071" lon="-0.86219">
        <ele>124</ele>
        <time>2023-05-08T20:00:40Z</time>
      </trkpt>
      <trkpt lat="47.01067" lon="-0.86197">
        <ele>123</ele>
        <time>2023-05-08T20:00:42Z</time>
      </trkpt>
      <trkpt lat="47.01058" lon="-0.8611">
        <ele>119</ele>
        <time>2023-05-08T20:00:53Z</time>
      </trkpt>
      <trkpt lat="47.01049" lon="-0.86064">
        <ele>118</ele>
        <time>2023-05-08T20:00:59Z</time>
      </trkpt>
      <trkpt lat="47.01042" lon="-0.86038">
        <ele>117</ele>
        <time>2023-05-08T20:01:02Z</time>
      </trkpt>
      <trkpt lat="47.01025" lon="-0.85996">
        <ele>116</ele>
        <time>2023-05-08T20:01:08Z</time>
      </trkpt>
      <trkpt lat="47.01015" lon="-0.8598">
        <ele>116</ele>
        <time>2023-05-08T20:01:11Z</time>
      </trkpt>
      <trkpt lat="47.01005" lon="-0.85963">
        <ele>116</ele>
        <time>2023-05-08T20:01:14Z</time>
      </trkpt>
      <trkpt lat="47.00982" lon="-0.85939">
        <ele>117</ele>
        <time>2023-05-08T20:01:19Z</time>
      </trkpt>
      <trkpt lat="47.00971" lon="-0.85925">
        <ele>117</ele>
        <time>2023-05-08T20:01:21Z</time>
      </trkpt>
      <trkpt lat="47.00961" lon="-0.85908">
        <ele>118</ele>
        <time>2023-05-08T20:01:24Z</time>
      </trkpt>
      <trkpt lat="47.00947" lon="-0.85874">
        <ele>119</ele>
        <time>2023-05-08T20:01:29Z</time>
      </trkpt>
      <trkpt lat="47.00932" lon="-0.85847">
        <ele>119</ele>
        <time>2023-05-08T20:01:33Z</time>
      </trkpt>
      <trkpt lat="47.00754" lon="-0.85616">
        <ele>125</ele>
        <time>2023-05-08T20:02:15Z</time>
      </trkpt>
      <trkpt lat="47.00728" lon="-0.8558">
        <ele>127</ele>
        <time>2023-05-08T20:02:22Z</time>
      </trkpt>
      <trkpt lat="47.007" lon="-0.85535">
        <ele>129</ele>
        <time>2023-05-08T20:02:29Z</time>
      </trkpt>
      <trkpt lat="47.00676" lon="-0.85503">
        <ele>130</ele>
        <time>2023-05-08T20:02:35Z</time>
      </trkpt>
      <trkpt lat="47.00695" lon="-0.85484">
        <ele>130</ele>
        <time>2023-05-08T20:02:39Z</time>
      </trkpt>
      <trkpt lat="47.00713" lon="-0.85463">
        <ele>129</ele>
        <time>2023-05-08T20:02:43Z</time>
      </trkpt>
      <trkpt lat="47.00727" lon="-0.8545">
        <ele>129</ele>
        <time>2023-05-08T20:02:46Z</time>
      </trkpt>
      <trkpt lat="47.00746" lon="-0.85441">
        <ele>128</ele>
        <time>2023-05-08T20:02:49Z</time>
      </trkpt>
      <trkpt lat="47.00768" lon="-0.85435">
        <ele>127</ele>
        <time>2023-05-08T20:02:53Z</time>
      </trkpt>
      <trkpt lat="47.00787" lon="-0.85434">
        <ele>126</ele>
        <time>2023-05-08T20:02:57Z</time>
      </trkpt>
      <trkpt lat="47.00849" lon="-0.85445">
        <ele>122</ele>
        <time>2023-05-08T20:03:08Z</time>
      </trkpt>
      <trkpt lat="47.00863" lon="-0.85441">
        <ele>121</ele>
        <time>2023-05-08T20:03:10Z</time>
      </trkpt>
      <trkpt lat="47.00868" lon="-0.85433">
        <ele>121</ele>
        <time>2023-05-08T20:03:12Z</time>
      </trkpt>
      <trkpt lat="47.00879" lon="-0.85437">
        <ele>120</ele>
        <time>2023-05-08T20:03:14Z</time>
      </trkpt>
      <trkpt lat="47.00887" lon="-0.85434">
        <ele>119</ele>
        <time>2023-05-08T20:03:15Z</time>
      </trkpt>
      <trkpt lat="47.00966" lon="-0.85376">
        <ele>112</ele>
        <time>2023-05-08T20:03:31Z</time>
      </trkpt>
      <trkpt lat="47.00973" lon="-0.85367">
        <ele>112</ele>
        <time>2023-05-08T20:03:33Z</time>
      </trkpt>
      <trkpt lat="47.00981" lon="-0.85348">
        <ele>111</ele>
        <time>2023-05-08T20:03:35Z</time>
      </trkpt>
      <trkpt lat="47.00988" lon="-0.85299">
        <ele>107</ele>
        <time>2023-05-08T20:03:41Z</time>
      </trkpt>
      <trkpt lat="47.0099" lon="-0.85283">
        <ele>105</ele>
        <time>2023-05-08T20:03:43Z</time>
      </trkpt>
      <trkpt lat="47.01175" lon="-0.85261">
        <ele>95</ele>
        <time>2023-05-08T20:04:16Z</time>
      </trkpt>
      <trkpt lat="47.01203" lon="-0.85255">
        <ele>95</ele>
        <time>2023-05-08T20:04:21Z</time>
      </trkpt>
      <trkpt lat="47.01249" lon="-0.85235">
        <ele>95</ele>
        <time>2023-05-08T20:04:30Z</time>
      </trkpt>
      <trkpt lat="47.01279" lon="-0.85216">
        <ele>95</ele>
        <time>2023-05-08T20:04:36Z</time>
      </trkpt>
      <trkpt lat="47.01378" lon="-0.85147">
        <ele>94</ele>
        <time>2023-05-08T20:04:55Z</time>
      </trkpt>
      <trkpt lat="47.01414" lon="-0.85125">
        <ele>93</ele>
        <time>2023-05-08T20:05:02Z</time>
      </trkpt>
      <trkpt lat="47.0146" lon="-0.85102">
        <ele>93</ele>
        <time>2023-05-08T20:05:11Z</time>
      </trkpt>
      <trkpt lat="47.01808" lon="-0.84991">
        <ele>87</ele>
        <time>2023-05-08T20:06:14Z</time>
      </trkpt>
      <trkpt lat="47.01859" lon="-0.84983">
        <ele>86</ele>
        <time>2023-05-08T20:06:23Z</time>
      </trkpt>
      <trkpt lat="47.01884" lon="-0.84981">
        <ele>86</ele>
        <time>2023-05-08T20:06:28Z</time>
      </trkpt>
      <trkpt lat="47.01933" lon="-0.84985">
        <ele>85</ele>
        <time>2023-05-08T20:06:37Z</time>
      </trkpt>
      <trkpt lat="47.0198" lon="-0.84996">
        <ele>86</ele>
        <time>2023-05-08T20:06:45Z</time>
      </trkpt>
      <trkpt lat="47.02155" lon="-0.85052">
        <ele>81</ele>
        <time>2023-05-08T20:07:17Z</time>
      </trkpt>
      <trkpt lat="47.02214" lon="-0.85078">
        <ele>79</ele>
        <time>2023-05-08T20:07:28Z</time>
      </trkpt>
      <trkpt lat="47.02264" lon="-0.85109">
        <ele>80</ele>
        <time>2023-05-08T20:07:38Z</time>
      </trkpt>
      <trkpt lat="47.02312" lon="-0.85151">
        <ele>80</ele>
        <time>2023-05-08T20:07:47Z</time>
      </trkpt>
      <trkpt lat="47.02344" lon="-0.85185">
        <ele>80</ele>
        <time>2023-05-08T20:07:54Z</time>
      </trkpt>
      <trkpt lat="47.02369" lon="-0.85217">
        <ele>80</ele>
        <time>2023-05-08T20:08:00Z</time>
      </trkpt>
      <trkpt lat="47.02395" lon="-0.85255">
        <ele>79</ele>
        <time>2023-05-08T20:08:07Z</time>
      </trkpt>
      <trkpt lat="47.02477" lon="-0.85399">
        <ele>78</ele>
        <time>2023-05-08T20:08:30Z</time>
      </trkpt>
      <trkpt lat="47.02493" lon="-0.85386">
        <ele>77</ele>
        <time>2023-05-08T20:08:33Z</time>
      </trkpt>
      <trkpt lat="47.02522" lon="-0.85373">
        <ele>77</ele>
        <time>2023-05-08T20:08:38Z</time>
      </trkpt>
      <trkpt lat="47.02544" lon="-0.85365">
        <ele>77</ele>
        <time>2023-05-08T20:08:42Z</time>
      </trkpt>
      <trkpt lat="47.02613" lon="-0.85338">
        <ele>80</ele>
        <time>2023-05-08T20:08:55Z</time>
      </trkpt>
      <trkpt lat="47.0272" lon="-0.8531">
        <ele>86</ele>
        <time>2023-05-08T20:09:14Z</time>
      </trkpt>
      <trkpt lat="47.02739" lon="-0.85291">
        <ele>88</ele>
        <time>2023-05-08T20:09:18Z</time>
      </trkpt>
      <trkpt lat="47.02774" lon="-0.85249">
        <ele>91</ele>
        <time>2023-05-08T20:09:27Z</time>
      </trkpt>
      <trkpt lat="47.028" lon="-0.85228">
        <ele>91</ele>
        <time>2023-05-08T20:09:32Z</time>
      </trkpt>
      <trkpt lat="47.02894" lon="-0.85197">
        <ele>92</ele>
        <time>2023-05-08T20:09:49Z</time>
      </trkpt>
      <trkpt lat="47.02923" lon="-0.85198">
        <ele>92</ele>
        <time>2023-05-08T20:09:54Z</time>
      </trkpt>
      <trkpt lat="47.03041" lon="-0.85211">
        <ele>93</ele>
        <time>2023-05-08T20:10:15Z</time>
      </trkpt>
      <trkpt lat="47.03059" lon="-0.85211">
        <ele>94</ele>
        <time>2023-05-08T20:10:18Z</time>
      </trkpt>
      <trkpt lat="47.03124" lon="-0.85195">
        <ele>97</ele>
        <time>2023-05-08T20:10:30Z</time>
      </trkpt>
      <trkpt lat="47.03137" lon="-0.85193">
        <ele>98</ele>
        <time>2023-05-08T20:10:32Z</time>
      </trkpt>
      <trkpt lat="47.03188" lon="-0.85197">
        <ele>98</ele>
        <time>2023-05-08T20:10:42Z</time>
      </trkpt>
      <trkpt lat="47.03203" lon="-0.85201">
        <ele>98</ele>
        <time>2023-05-08T20:10:44Z</time>
      </trkpt>
      <trkpt lat="47.03239" lon="-0.85216">
        <ele>98</ele>
        <time>2023-05-08T20:10:51Z</time>
      </trkpt>
      <trkpt lat="47.03273" lon="-0.85235">
        <ele>98</ele>
        <time>2023-05-08T20:10:57Z</time>
      </trkpt>
      <trkpt lat="47.0331" lon="-0.85261">
        <ele>97</ele>
        <time>2023-05-08T20:11:05Z</time>
      </trkpt>
      <trkpt lat="47.03353" lon="-0.853">
        <ele>96</ele>
        <time>2023-05-08T20:11:14Z</time>
      </trkpt>
      <trkpt lat="47.03401" lon="-0.85357">
        <ele>95</ele>
        <time>2023-05-08T20:11:25Z</time>
      </trkpt>
      <trkpt lat="47.03434" lon="-0.85394">
        <ele>94</ele>
        <time>2023-05-08T20:11:32Z</time>
      </trkpt>
      <trkpt lat="47.03463" lon="-0.85428">
        <ele>94</ele>
        <time>2023-05-08T20:11:39Z</time>
      </trkpt>
      <trkpt lat="47.03541" lon="-0.85527">
        <ele>93</ele>
        <time>2023-05-08T20:11:57Z</time>
      </trkpt>
      <trkpt lat="47.03561" lon="-0.85546">
        <ele>92</ele>
        <time>2023-05-08T20:12:01Z</time>
      </trkpt>
      <trkpt lat="47.0361" lon="-0.85583">
        <ele>91</ele>
        <time>2023-05-08T20:12:11Z</time>
      </trkpt>
      <trkpt lat="47.0366" lon="-0.85614">
        <ele>92</ele>
        <time>2023-05-08T20:12:21Z</time>
      </trkpt>
      <trkpt lat="47.03721" lon="-0.85664">
        <ele>93</ele>
        <time>2023-05-08T20:12:33Z</time>
      </trkpt>
      <trkpt lat="47.03779" lon="-0.85694">
        <ele>94</ele>
        <time>2023-05-08T20:12:44Z</time>
      </trkpt>
      <trkpt lat="47.03858" lon="-0.85748">
        <ele>91</ele>
        <time>2023-05-08T20:13:00Z</time>
      </trkpt>
      <trkpt lat="47.03878" lon="-0.85755">
        <ele>90</ele>
        <time>2023-05-08T20:13:03Z</time>
      </trkpt>
      <trkpt lat="47.03896" lon="-0.85755">
        <ele>90</ele>
        <time>2023-05-08T20:13:06Z</time>
      </trkpt>
      <trkpt lat="47.0392" lon="-0.8575">
        <ele>89</ele>
        <time>2023-05-08T20:13:11Z</time>
      </trkpt>
      <trkpt lat="47.03989" lon="-0.85713">
        <ele>90</ele>
        <time>2023-05-08T20:13:24Z</time>
      </trkpt>
      <trkpt lat="47.04011" lon="-0.85709">
        <ele>90</ele>
        <time>2023-05-08T20:13:28Z</time>
      </trkpt>
      <trkpt lat="47.04033" lon="-0.85712">
        <ele>90</ele>
        <time>2023-05-08T20:13:32Z</time>
      </trkpt>
      <trkpt lat="47.04061" lon="-0.85715">
        <ele>89</ele>
        <time>2023-05-08T20:13:37Z</time>
      </trkpt>
      <trkpt lat="47.04096" lon="-0.85724">
        <ele>89</ele>
        <time>2023-05-08T20:13:43Z</time>
      </trkpt>
      <trkpt lat="47.04135" lon="-0.85738">
        <ele>88</ele>
        <time>2023-05-08T20:13:50Z</time>
      </trkpt>
      <trkpt lat="47.04157" lon="-0.85743">
        <ele>87</ele>
        <time>2023-05-08T20:13:54Z</time>
      </trkpt>
      <trkpt lat="47.04172" lon="-0.85741">
        <ele>88</ele>
        <time>2023-05-08T20:13:57Z</time>
      </trkpt>
      <trkpt lat="47.04202" lon="-0.85725">
        <ele>89</ele>
        <time>2023-05-08T20:14:02Z</time>
      </trkpt>
      <trkpt lat="47.04214" lon="-0.85724">
        <ele>89</ele>
        <time>2023-05-08T20:14:05Z</time>
      </trkpt>
      <trkpt lat="47.04227" lon="-0.8573">
        <ele>89</ele>
        <time>2023-05-08T20:14:07Z</time>
      </trkpt>
      <trkpt lat="47.04238" lon="-0.85743">
        <ele>89</ele>
        <time>2023-05-08T20:14:10Z</time>
      </trkpt>
      <trkpt lat="47.04282" lon="-0.85817">
        <ele>89</ele>
        <time>2023-05-08T20:14:21Z</time>
      </trkpt>
      <trkpt lat="47.04317" lon="-0.85874">
        <ele>88</ele>
        <time>2023-05-08T20:14:31Z</time>
      </trkpt>
      <trkpt lat="47.04342" lon="-0.85908">
        <ele>88</ele>
        <time>2023-05-08T20:14:37Z</time>
      </trkpt>
      <trkpt lat="47.04368" lon="-0.85939">
        <ele>88</ele>
        <time>2023-05-08T20:14:43Z</time>
      </trkpt>
      <trkpt lat="47.04401" lon="-0.85969">
        <ele>88</ele>
        <time>2023-05-08T20:14:50Z</time>
      </trkpt>
      <trkpt lat="47.04424" lon="-0.85984">
        <ele>88</ele>
        <time>2023-05-08T20:14:54Z</time>
      </trkpt>
      <trkpt lat="47.04452" lon="-0.85998">
        <ele>86</ele>
        <time>2023-05-08T20:14:59Z</time>
      </trkpt>
      <trkpt lat="47.04472" lon="-0.86005">
        <ele>85</ele>
        <time>2023-05-08T20:15:03Z</time>
      </trkpt>
      <trkpt lat="47.04506" lon="-0.86009">
        <ele>85</ele>
        <time>2023-05-08T20:15:09Z</time>
      </trkpt>
      <trkpt lat="47.04518" lon="-0.86016">
        <ele>85</ele>
        <time>2023-05-08T20:15:11Z</time>
      </trkpt>
      <trkpt lat="47.04538" lon="-0.86038">
        <ele>84</ele>
        <time>2023-05-08T20:15:16Z</time>
      </trkpt>
      <trkpt lat="47.04583" lon="-0.86097">
        <ele>84</ele>
        <time>2023-05-08T20:15:27Z</time>
      </trkpt>
      <trkpt lat="47.04599" lon="-0.86114">
        <ele>83</ele>
        <time>2023-05-08T20:15:30Z</time>
      </trkpt>
      <trkpt lat="47.0462" lon="-0.86126">
        <ele>83</ele>
        <time>2023-05-08T20:15:34Z</time>
      </trkpt>
      <trkpt lat="47.04712" lon="-0.86152">
        <ele>84</ele>
        <time>2023-05-08T20:15:51Z</time>
      </trkpt>
      <trkpt lat="47.04727" lon="-0.86151">
        <ele>84</ele>
        <time>2023-05-08T20:15:54Z</time>
      </trkpt>
      <trkpt lat="47.04735" lon="-0.86163">
        <ele>84</ele>
        <time>2023-05-08T20:15:56Z</time>
      </trkpt>
      <trkpt lat="47.0476" lon="-0.86213">
        <ele>83</ele>
        <time>2023-05-08T20:16:03Z</time>
      </trkpt>
      <trkpt lat="47.04779" lon="-0.86246">
        <ele>82</ele>
        <time>2023-05-08T20:16:08Z</time>
      </trkpt>
      <trkpt lat="47.04814" lon="-0.863">
        <ele>82</ele>
        <time>2023-05-08T20:16:17Z</time>
      </trkpt>
      <trkpt lat="47.04823" lon="-0.86319">
        <ele>82</ele>
        <time>2023-05-08T20:16:20Z</time>
      </trkpt>
      <trkpt lat="47.04841" lon="-0.86378">
        <ele>81</ele>
        <time>2023-05-08T20:16:28Z</time>
      </trkpt>
      <trkpt lat="47.04907" lon="-0.86555">
        <ele>78</ele>
        <time>2023-05-08T20:16:52Z</time>
      </trkpt>
      <trkpt lat="47.04918" lon="-0.86577">
        <ele>77</ele>
        <time>2023-05-08T20:16:56Z</time>
      </trkpt>
      <trkpt lat="47.04924" lon="-0.86584">
        <ele>77</ele>
        <time>2023-05-08T20:16:57Z</time>
      </trkpt>
      <trkpt lat="47.04936" lon="-0.86589">
        <ele>78</ele>
        <time>2023-05-08T20:16:59Z</time>
      </trkpt>
      <trkpt lat="47.04934" lon="-0.86598">
        <ele>78</ele>
        <time>2023-05-08T20:17:00Z</time>
      </trkpt>
      <trkpt lat="47.04936" lon="-0.86589">
        <ele>78</ele>
        <time>2023-05-08T20:17:02Z</time>
      </trkpt>
      <trkpt lat="47.04953" lon="-0.86494">
        <ele>81</ele>
        <time>2023-05-08T20:17:14Z</time>
      </trkpt>
      <trkpt lat="47.04987" lon="-0.86359">
        <ele>84</ele>
        <time>2023-05-08T20:17:31Z</time>
      </trkpt>
      <trkpt lat="47.04989" lon="-0.86328">
        <ele>85</ele>
        <time>2023-05-08T20:17:35Z</time>
      </trkpt>
      <trkpt lat="47.04985" lon="-0.863">
        <ele>85</ele>
        <time>2023-05-08T20:17:38Z</time>
      </trkpt>
      <trkpt lat="47.0498" lon="-0.86283">
        <ele>86</ele>
        <time>2023-05-08T20:17:40Z</time>
      </trkpt>
      <trkpt lat="47.04946" lon="-0.86206">
        <ele>86</ele>
        <time>2023-05-08T20:17:52Z</time>
      </trkpt>
      <trkpt lat="47.04942" lon="-0.86189">
        <ele>87</ele>
        <time>2023-05-08T20:17:54Z</time>
      </trkpt>
      <trkpt lat="47.04896" lon="-0.86081">
        <ele>89</ele>
        <time>2023-05-08T20:18:09Z</time>
      </trkpt>
      <trkpt lat="47.04748" lon="-0.8573">
        <ele>97</ele>
        <time>2023-05-08T20:18:59Z</time>
      </trkpt>
      <trkpt lat="47.04736" lon="-0.85705">
        <ele>98</ele>
        <time>2023-05-08T20:19:03Z</time>
      </trkpt>
      <trkpt lat="47.04717" lon="-0.85673">
        <ele>100</ele>
        <time>2023-05-08T20:19:08Z</time>
      </trkpt>
      <trkpt lat="47.04706" lon="-0.8568">
        <ele>99</ele>
        <time>2023-05-08T20:19:10Z</time>
      </trkpt>
      <trkpt lat="47.04691" lon="-0.85629">
        <ele>101</ele>
        <time>2023-05-08T20:19:17Z</time>
      </trkpt>
      <trkpt lat="47.04678" lon="-0.85572">
        <ele>101</ele>
        <time>2023-05-08T20:19:24Z</time>
      </trkpt>
      <trkpt lat="47.04668" lon="-0.85509">
        <ele>103</ele>
        <time>2023-05-08T20:19:32Z</time>
      </trkpt>
      <trkpt lat="47.04667" lon="-0.85498">
        <ele>103</ele>
        <time>2023-05-08T20:19:33Z</time>
      </trkpt>
      <trkpt lat="47.04672" lon="-0.85492">
        <ele>103</ele>
        <time>2023-05-08T20:19:35Z</time>
      </trkpt>
      <trkpt lat="47.04673" lon="-0.85488">
        <ele>104</ele>
        <time>2023-05-08T20:19:35Z</time>
      </trkpt>
      <trkpt lat="47.04612" lon="-0.8529">
        <ele>111</ele>
        <time>2023-05-08T20:20:01Z</time>
      </trkpt>
      <trkpt lat="47.04586" lon="-0.85211">
        <ele>113</ele>
        <time>2023-05-08T20:20:12Z</time>
      </trkpt>
      <trkpt lat="47.04628" lon="-0.85117">
        <ele>116</ele>
        <time>2023-05-08T20:20:26Z</time>
      </trkpt>
      <trkpt lat="47.0463" lon="-0.84967">
        <ele>118</ele>
        <time>2023-05-08T20:20:44Z</time>
      </trkpt>
      <trkpt lat="47.04629" lon="-0.84826">
        <ele>119</ele>
        <time>2023-05-08T20:21:01Z</time>
      </trkpt>
      <trkpt lat="47.04657" lon="-0.84758">
        <ele>122</ele>
        <time>2023-05-08T20:21:11Z</time>
      </trkpt>
      <trkpt lat="47.04672" lon="-0.84742">
        <ele>123</ele>
        <time>2023-05-08T20:21:14Z</time>
      </trkpt>
      <trkpt lat="47.04681" lon="-0.84722">
        <ele>123</ele>
        <time>2023-05-08T20:21:17Z</time>
      </trkpt>
      <trkpt lat="47.0459" lon="-0.84623">
        <ele>121</ele>
        <time>2023-05-08T20:21:37Z</time>
      </trkpt>
      <trkpt lat="47.04519" lon="-0.84542">
        <ele>123</ele>
        <time>2023-05-08T20:21:53Z</time>
      </trkpt>
      <trkpt lat="47.04465" lon="-0.84465">
        <ele>124</ele>
        <time>2023-05-08T20:22:06Z</time>
      </trkpt>
      <trkpt lat="47.04363" lon="-0.84297">
        <ele>125</ele>
        <time>2023-05-08T20:22:34Z</time>
      </trkpt>
      <trkpt lat="47.04359" lon="-0.8429">
        <ele>124</ele>
        <time>2023-05-08T20:22:35Z</time>
      </trkpt>
      <trkpt lat="47.04424" lon="-0.84207">
        <ele>127</ele>
        <time>2023-05-08T20:22:50Z</time>
      </trkpt>
      <trkpt lat="47.04446" lon="-0.84176">
        <ele>128</ele>
        <time>2023-05-08T20:22:56Z</time>
      </trkpt>
      <trkpt lat="47.04457" lon="-0.84155">
        <ele>128</ele>
        <time>2023-05-08T20:22:59Z</time>
      </trkpt>
      <trkpt lat="47.0448" lon="-0.84096">
        <ele>126</ele>
        <time>2023-05-08T20:23:07Z</time>
      </trkpt>
      <trkpt lat="47.04489" lon="-0.84074">
        <ele>126</ele>
        <time>2023-05-08T20:23:10Z</time>
      </trkpt>
      <trkpt lat="47.045" lon="-0.84052">
        <ele>126</ele>
        <time>2023-05-08T20:23:13Z</time>
      </trkpt>
      <trkpt lat="47.04513" lon="-0.84042">
        <ele>127</ele>
        <time>2023-05-08T20:23:16Z</time>
      </trkpt>
      <trkpt lat="47.04585" lon="-0.84014">
        <ele>129</ele>
        <time>2023-05-08T20:23:29Z</time>
      </trkpt>
      <trkpt lat="47.04613" lon="-0.83997">
        <ele>129</ele>
        <time>2023-05-08T20:23:35Z</time>
      </trkpt>
      <trkpt lat="47.04696" lon="-0.83911">
        <ele>129</ele>
        <time>2023-05-08T20:23:53Z</time>
      </trkpt>
      <trkpt lat="47.04711" lon="-0.83902">
        <ele>129</ele>
        <time>2023-05-08T20:23:56Z</time>
      </trkpt>
      <trkpt lat="47.04719" lon="-0.83902">
        <ele>129</ele>
        <time>2023-05-08T20:23:57Z</time>
      </trkpt>
      <trkpt lat="47.04734" lon="-0.83906">
        <ele>129</ele>
        <time>2023-05-08T20:24:00Z</time>
      </trkpt>
      <trkpt lat="47.04749" lon="-0.83919">
        <ele>129</ele>
        <time>2023-05-08T20:24:03Z</time>
      </trkpt>
      <trkpt lat="47.04768" lon="-0.83956">
        <ele>130</ele>
        <time>2023-05-08T20:24:09Z</time>
      </trkpt>
      <trkpt lat="47.04775" lon="-0.83967">
        <ele>130</ele>
        <time>2023-05-08T20:24:10Z</time>
      </trkpt>
      <trkpt lat="47.04788" lon="-0.83978">
        <ele>130</ele>
        <time>2023-05-08T20:24:13Z</time>
      </trkpt>
      <trkpt lat="47.04805" lon="-0.83981">
        <ele>130</ele>
        <time>2023-05-08T20:24:16Z</time>
      </trkpt>
      <trkpt lat="47.04818" lon="-0.83979">
        <ele>130</ele>
        <time>2023-05-08T20:24:18Z</time>
      </trkpt>
      <trkpt lat="47.04965" lon="-0.83933">
        <ele>128</ele>
        <time>2023-05-08T20:24:45Z</time>
      </trkpt>
      <trkpt lat="47.04962" lon="-0.83843">
        <ele>129</ele>
        <time>2023-05-08T20:24:56Z</time>
      </trkpt>
      <trkpt lat="47.04953" lon="-0.83716">
        <ele>130</ele>
        <time>2023-05-08T20:25:12Z</time>
      </trkpt>
      <trkpt lat="47.04947" lon="-0.83664">
        <ele>131</ele>
        <time>2023-05-08T20:25:18Z</time>
      </trkpt>
      <trkpt lat="47.04937" lon="-0.83593">
        <ele>132</ele>
        <time>2023-05-08T20:25:27Z</time>
      </trkpt>
      <trkpt lat="47.04922" lon="-0.83521">
        <ele>132</ele>
        <time>2023-05-08T20:25:36Z</time>
      </trkpt>
      <trkpt lat="47.04901" lon="-0.83438">
        <ele>131</ele>
        <time>2023-05-08T20:25:47Z</time>
      </trkpt>
      <trkpt lat="47.04847" lon="-0.83262">
        <ele>131</ele>
        <time>2023-05-08T20:26:10Z</time>
      </trkpt>
      <trkpt lat="47.04772" lon="-0.83033">
        <ele>132</ele>
        <time>2023-05-08T20:26:41Z</time>
      </trkpt>
      <trkpt lat="47.04753" lon="-0.82982">
        <ele>133</ele>
        <time>2023-05-08T20:26:48Z</time>
      </trkpt>
      <trkpt lat="47.04698" lon="-0.82867">
        <ele>132</ele>
        <time>2023-05-08T20:27:05Z</time>
      </trkpt>
      <trkpt lat="47.04667" lon="-0.82817">
        <ele>131</ele>
        <time>2023-05-08T20:27:13Z</time>
      </trkpt>
      <trkpt lat="47.04307" lon="-0.82367">
        <ele>103</ele>
        <time>2023-05-08T20:28:37Z</time>
      </trkpt>
      <trkpt lat="47.04228" lon="-0.82256">
        <ele>96</ele>
        <time>2023-05-08T20:28:57Z</time>
      </trkpt>
      <trkpt lat="47.04175" lon="-0.82182">
        <ele>94</ele>
        <time>2023-05-08T20:29:10Z</time>
      </trkpt>
      <trkpt lat="47.04154" lon="-0.82145">
        <ele>95</ele>
        <time>2023-05-08T20:29:16Z</time>
      </trkpt>
      <trkpt lat="47.04091" lon="-0.82026">
        <ele>92</ele>
        <time>2023-05-08T20:29:34Z</time>
      </trkpt>
      <trkpt lat="47.04001" lon="-0.81841">
        <ele>88</ele>
        <time>2023-05-08T20:30:01Z</time>
      </trkpt>
      <trkpt lat="47.03982" lon="-0.81795">
        <ele>88</ele>
        <time>2023-05-08T20:30:08Z</time>
      </trkpt>
      <trkpt lat="47.03963" lon="-0.81741">
        <ele>89</ele>
        <time>2023-05-08T20:30:15Z</time>
      </trkpt>
      <trkpt lat="47.03934" lon="-0.8165">
        <ele>91</ele>
        <time>2023-05-08T20:30:27Z</time>
      </trkpt>
      <trkpt lat="47.03849" lon="-0.81676">
        <ele>97</ele>
        <time>2023-05-08T20:30:43Z</time>
      </trkpt>
      <trkpt lat="47.03731" lon="-0.81704">
        <ele>103</ele>
        <time>2023-05-08T20:31:04Z</time>
      </trkpt>
      <trkpt lat="47.03655" lon="-0.81725">
        <ele>105</ele>
        <time>2023-05-08T20:31:18Z</time>
      </trkpt>
      <trkpt lat="47.0363" lon="-0.81735">
        <ele>105</ele>
        <time>2023-05-08T20:31:23Z</time>
      </trkpt>
      <trkpt lat="47.03625" lon="-0.81734">
        <ele>105</ele>
        <time>2023-05-08T20:31:23Z</time>
      </trkpt>
      <trkpt lat="47.0362" lon="-0.81728">
        <ele>105</ele>
        <time>2023-05-08T20:31:25Z</time>
      </trkpt>
      <trkpt lat="47.03617" lon="-0.81718">
        <ele>105</ele>
        <time>2023-05-08T20:31:26Z</time>
      </trkpt>
      <trkpt lat="47.03613" lon="-0.81695">
        <ele>105</ele>
        <time>2023-05-08T20:31:29Z</time>
      </trkpt>
      <trkpt lat="47.03607" lon="-0.81665">
        <ele>105</ele>
        <time>2023-05-08T20:31:33Z</time>
      </trkpt>
      <trkpt lat="47.03574" lon="-0.81544">
        <ele>105</ele>
        <time>2023-05-08T20:31:48Z</time>
      </trkpt>
      <trkpt lat="47.03518" lon="-0.81328">
        <ele>107</ele>
        <time>2023-05-08T20:32:16Z</time>
      </trkpt>
      <trkpt lat="47.03508" lon="-0.81302">
        <ele>107</ele>
        <time>2023-05-08T20:32:20Z</time>
      </trkpt>
      <trkpt lat="47.03495" lon="-0.81279">
        <ele>108</ele>
        <time>2023-05-08T20:32:24Z</time>
      </trkpt>
      <trkpt lat="47.03406" lon="-0.81155">
        <ele>108</ele>
        <time>2023-05-08T20:32:45Z</time>
      </trkpt>
      <trkpt lat="47.03386" lon="-0.8113">
        <ele>108</ele>
        <time>2023-05-08T20:32:50Z</time>
      </trkpt>
      <trkpt lat="47.03364" lon="-0.81107">
        <ele>108</ele>
        <time>2023-05-08T20:32:55Z</time>
      </trkpt>
      <trkpt lat="47.03326" lon="-0.81076">
        <ele>108</ele>
        <time>2023-05-08T20:33:03Z</time>
      </trkpt>
      <trkpt lat="47.03117" lon="-0.80949">
        <ele>108</ele>
        <time>2023-05-08T20:33:43Z</time>
      </trkpt>
      <trkpt lat="47.03092" lon="-0.80929">
        <ele>109</ele>
        <time>2023-05-08T20:33:48Z</time>
      </trkpt>
      <trkpt lat="47.02975" lon="-0.80787">
        <ele>113</ele>
        <time>2023-05-08T20:34:15Z</time>
      </trkpt>
      <trkpt lat="47.02949" lon="-0.80765">
        <ele>115</ele>
        <time>2023-05-08T20:34:20Z</time>
      </trkpt>
      <trkpt lat="47.02791" lon="-0.80667">
        <ele>124</ele>
        <time>2023-05-08T20:34:51Z</time>
      </trkpt>
      <trkpt lat="47.02675" lon="-0.806">
        <ele>125</ele>
        <time>2023-05-08T20:35:13Z</time>
      </trkpt>
      <trkpt lat="47.02648" lon="-0.80576">
        <ele>125</ele>
        <time>2023-05-08T20:35:19Z</time>
      </trkpt>
      <trkpt lat="47.02524" lon="-0.80446">
        <ele>127</ele>
        <time>2023-05-08T20:35:46Z</time>
      </trkpt>
      <trkpt lat="47.02456" lon="-0.80366">
        <ele>129</ele>
        <time>2023-05-08T20:36:01Z</time>
      </trkpt>
      <trkpt lat="47.02454" lon="-0.80373">
        <ele>129</ele>
        <time>2023-05-08T20:36:02Z</time>
      </trkpt>
      <trkpt lat="47.02452" lon="-0.80398">
        <ele>129</ele>
        <time>2023-05-08T20:36:05Z</time>
      </trkpt>
      <trkpt lat="47.02444" lon="-0.80598">
        <ele>128</ele>
        <time>2023-05-08T20:36:30Z</time>
      </trkpt>
      <trkpt lat="47.02444" lon="-0.80628">
        <ele>128</ele>
        <time>2023-05-08T20:36:33Z</time>
      </trkpt>
      <trkpt lat="47.02451" lon="-0.80677">
        <ele>127</ele>
        <time>2023-05-08T20:36:39Z</time>
      </trkpt>
      <trkpt lat="47.02456" lon="-0.80702">
        <ele>127</ele>
        <time>2023-05-08T20:36:42Z</time>
      </trkpt>
      <trkpt lat="47.02466" lon="-0.80735">
        <ele>126</ele>
        <time>2023-05-08T20:36:47Z</time>
      </trkpt>
      <trkpt lat="47.02482" lon="-0.80776">
        <ele>127</ele>
        <time>2023-05-08T20:36:53Z</time>
      </trkpt>
      <trkpt lat="47.02492" lon="-0.80808">
        <ele>127</ele>
        <time>2023-05-08T20:36:57Z</time>
      </trkpt>
      <trkpt lat="47.02495" lon="-0.80839">
        <ele>128</ele>
        <time>2023-05-08T20:37:01Z</time>
      </trkpt>
      <trkpt lat="47.02493" lon="-0.80879">
        <ele>127</ele>
        <time>2023-05-08T20:37:05Z</time>
      </trkpt>
      <trkpt lat="47.02473" lon="-0.81035">
        <ele>127</ele>
        <time>2023-05-08T20:37:25Z</time>
      </trkpt>
      <trkpt lat="47.02461" lon="-0.81146">
        <ele>127</ele>
        <time>2023-05-08T20:37:38Z</time>
      </trkpt>
      <trkpt lat="47.02454" lon="-0.81252">
        <ele>126</ele>
        <time>2023-05-08T20:37:51Z</time>
      </trkpt>
      <trkpt lat="47.02448" lon="-0.81283">
        <ele>125</ele>
        <time>2023-05-08T20:37:55Z</time>
      </trkpt>
      <trkpt lat="47.02435" lon="-0.81316">
        <ele>124</ele>
        <time>2023-05-08T20:38:00Z</time>
      </trkpt>
      <trkpt lat="47.02356" lon="-0.81464">
        <ele>117</ele>
        <time>2023-05-08T20:38:23Z</time>
      </trkpt>
      <trkpt lat="47.02327" lon="-0.81517">
        <ele>116</ele>
        <time>2023-05-08T20:38:31Z</time>
      </trkpt>
      <trkpt lat="47.0232" lon="-0.81539">
        <ele>115</ele>
        <time>2023-05-08T20:38:34Z</time>
      </trkpt>
      <trkpt lat="47.02315" lon="-0.81561">
        <ele>114</ele>
        <time>2023-05-08T20:38:37Z</time>
      </trkpt>
      <trkpt lat="47.0231" lon="-0.81616">
        <ele>112</ele>
        <time>2023-05-08T20:38:43Z</time>
      </trkpt>
      <trkpt lat="47.02291" lon="-0.81704">
        <ele>107</ele>
        <time>2023-05-08T20:38:55Z</time>
      </trkpt>
      <trkpt lat="47.02286" lon="-0.81714">
        <ele>107</ele>
        <time>2023-05-08T20:38:56Z</time>
      </trkpt>
      <trkpt lat="47.02253" lon="-0.81766">
        <ele>104</ele>
        <time>2023-05-08T20:39:05Z</time>
      </trkpt>
      <trkpt lat="47.02232" lon="-0.81811">
        <ele>102</ele>
        <time>2023-05-08T20:39:11Z</time>
      </trkpt>
      <trkpt lat="47.02209" lon="-0.8188">
        <ele>98</ele>
        <time>2023-05-08T20:39:21Z</time>
      </trkpt>
      <trkpt lat="47.02202" lon="-0.81921">
        <ele>97</ele>
        <time>2023-05-08T20:39:26Z</time>
      </trkpt>
      <trkpt lat="47.02196" lon="-0.81967">
        <ele>96</ele>
        <time>2023-05-08T20:39:31Z</time>
      </trkpt>
      <trkpt lat="47.02191" lon="-0.82106">
        <ele>91</ele>
        <time>2023-05-08T20:39:48Z</time>
      </trkpt>
      <trkpt lat="47.02191" lon="-0.82114">
        <ele>91</ele>
        <time>2023-05-08T20:39:49Z</time>
      </trkpt>
      <trkpt lat="47.02191" lon="-0.82142">
        <ele>90</ele>
        <time>2023-05-08T20:39:53Z</time>
      </trkpt>
      <trkpt lat="47.02174" lon="-0.82583">
        <ele>104</ele>
        <time>2023-05-08T20:40:46Z</time>
      </trkpt>
      <trkpt lat="47.02168" lon="-0.82622">
        <ele>105</ele>
        <time>2023-05-08T20:40:51Z</time>
      </trkpt>
      <trkpt lat="47.02161" lon="-0.82646">
        <ele>106</ele>
        <time>2023-05-08T20:40:54Z</time>
      </trkpt>
      <trkpt lat="47.02156" lon="-0.82661">
        <ele>107</ele>
        <time>2023-05-08T20:40:56Z</time>
      </trkpt>
      <trkpt lat="47.02138" lon="-0.8269">
        <ele>108</ele>
        <time>2023-05-08T20:41:01Z</time>
      </trkpt>
      <trkpt lat="47.02112" lon="-0.82717">
        <ele>109</ele>
        <time>2023-05-08T20:41:07Z</time>
      </trkpt>
      <trkpt lat="47.02085" lon="-0.82733">
        <ele>108</ele>
        <time>2023-05-08T20:41:12Z</time>
      </trkpt>
      <trkpt lat="47.02018" lon="-0.82765">
        <ele>107</ele>
        <time>2023-05-08T20:41:24Z</time>
      </trkpt>
      <trkpt lat="47.01984" lon="-0.82794">
        <ele>106</ele>
        <time>2023-05-08T20:41:31Z</time>
      </trkpt>
      <trkpt lat="47.01975" lon="-0.82805">
        <ele>106</ele>
        <time>2023-05-08T20:41:34Z</time>
      </trkpt>
      <trkpt lat="47.01964" lon="-0.82821">
        <ele>106</ele>
        <time>2023-05-08T20:41:36Z</time>
      </trkpt>
      <trkpt lat="47.01956" lon="-0.82843">
        <ele>107</ele>
        <time>2023-05-08T20:41:39Z</time>
      </trkpt>
      <trkpt lat="47.01924" lon="-0.82957">
        <ele>110</ele>
        <time>2023-05-08T20:41:54Z</time>
      </trkpt>
      <trkpt lat="47.01914" lon="-0.82987">
        <ele>111</ele>
        <time>2023-05-08T20:41:58Z</time>
      </trkpt>
      <trkpt lat="47.01826" lon="-0.83164">
        <ele>118</ele>
        <time>2023-05-08T20:42:25Z</time>
      </trkpt>
      <trkpt lat="47.01798" lon="-0.83205">
        <ele>118</ele>
        <time>2023-05-08T20:42:32Z</time>
      </trkpt>
      <trkpt lat="47.01774" lon="-0.83232">
        <ele>118</ele>
        <time>2023-05-08T20:42:37Z</time>
      </trkpt>
      <trkpt lat="47.01657" lon="-0.83335">
        <ele>116</ele>
        <time>2023-05-08T20:43:02Z</time>
      </trkpt>
      <trkpt lat="47.01614" lon="-0.83364">
        <ele>115</ele>
        <time>2023-05-08T20:43:10Z</time>
      </trkpt>
      <trkpt lat="47.01585" lon="-0.83377">
        <ele>115</ele>
        <time>2023-05-08T20:43:15Z</time>
      </trkpt>
      <trkpt lat="47.015" lon="-0.83405">
        <ele>115</ele>
        <time>2023-05-08T20:43:31Z</time>
      </trkpt>
      <trkpt lat="47.01481" lon="-0.83416">
        <ele>115</ele>
        <time>2023-05-08T20:43:35Z</time>
      </trkpt>
      <trkpt lat="47.01426" lon="-0.83467">
        <ele>114</ele>
        <time>2023-05-08T20:43:46Z</time>
      </trkpt>
      <trkpt lat="47.01376" lon="-0.83497">
        <ele>115</ele>
        <time>2023-05-08T20:43:56Z</time>
      </trkpt>
      <trkpt lat="47.01343" lon="-0.83513">
        <ele>116</ele>
        <time>2023-05-08T20:44:02Z</time>
      </trkpt>
      <trkpt lat="47.01326" lon="-0.83518">
        <ele>117</ele>
        <time>2023-05-08T20:44:05Z</time>
      </trkpt>
      <trkpt lat="47.01305" lon="-0.83521">
        <ele>117</ele>
        <time>2023-05-08T20:44:09Z</time>
      </trkpt>
      <trkpt lat="47.01262" lon="-0.83519">
        <ele>117</ele>
        <time>2023-05-08T20:44:16Z</time>
      </trkpt>
      <trkpt lat="47.01248" lon="-0.83521">
        <ele>117</ele>
        <time>2023-05-08T20:44:19Z</time>
      </trkpt>
      <trkpt lat="47.01234" lon="-0.83525">
        <ele>117</ele>
        <time>2023-05-08T20:44:21Z</time>
      </trkpt>
      <trkpt lat="47.01209" lon="-0.83537">
        <ele>117</ele>
        <time>2023-05-08T20:44:26Z</time>
      </trkpt>
      <trkpt lat="47.01127" lon="-0.836">
        <ele>119</ele>
        <time>2023-05-08T20:44:43Z</time>
      </trkpt>
      <trkpt lat="47.01056" lon="-0.83657">
        <ele>121</ele>
        <time>2023-05-08T20:44:57Z</time>
      </trkpt>
      <trkpt lat="47.0075" lon="-0.83959">
        <ele>132</ele>
        <time>2023-05-08T20:46:03Z</time>
      </trkpt>
      <trkpt lat="47.00727" lon="-0.83988">
        <ele>132</ele>
        <time>2023-05-08T20:46:08Z</time>
      </trkpt>
      <trkpt lat="47.00721" lon="-0.83998">
        <ele>132</ele>
        <time>2023-05-08T20:46:10Z</time>
      </trkpt>
      <trkpt lat="47.00718" lon="-0.84008">
        <ele>132</ele>
        <time>2023-05-08T20:46:11Z</time>
      </trkpt>
      <trkpt lat="47.00717" lon="-0.84035">
        <ele>131</ele>
        <time>2023-05-08T20:46:14Z</time>
      </trkpt>
      <trkpt lat="47.00726" lon="-0.84139">
        <ele>128</ele>
        <time>2023-05-08T20:46:27Z</time>
      </trkpt>
      <trkpt lat="47.00727" lon="-0.84162">
        <ele>128</ele>
        <time>2023-05-08T20:46:30Z</time>
      </trkpt>
      <trkpt lat="47.00725" lon="-0.84205">
        <ele>128</ele>
        <time>2023-05-08T20:46:35Z</time>
      </trkpt>
      <trkpt lat="47.00717" lon="-0.84263">
        <ele>127</ele>
        <time>2023-05-08T20:46:42Z</time>
      </trkpt>
      <trkpt lat="47.00718" lon="-0.8428">
        <ele>127</ele>
        <time>2023-05-08T20:46:44Z</time>
      </trkpt>
      <trkpt lat="47.00724" lon="-0.84285">
        <ele>127</ele>
        <time>2023-05-08T20:46:45Z</time>
      </trkpt>
      <trkpt lat="47.00726" lon="-0.8429">
        <ele>127</ele>
        <time>2023-05-08T20:46:46Z</time>
      </trkpt>
      <trkpt lat="47.00727" lon="-0.843">
        <ele>127</ele>
        <time>2023-05-08T20:46:47Z</time>
      </trkpt>
      <trkpt lat="47.00723" lon="-0.8431">
        <ele>127</ele>
        <time>2023-05-08T20:46:49Z</time>
      </trkpt>
      <trkpt lat="47.0072" lon="-0.84312">
        <ele>127</ele>
        <time>2023-05-08T20:46:49Z</time>
      </trkpt>
      <trkpt lat="47.00713" lon="-0.84313">
        <ele>127</ele>
        <time>2023-05-08T20:46:51Z</time>
      </trkpt>
      <trkpt lat="47.00709" lon="-0.84311">
        <ele>127</ele>
        <time>2023-05-08T20:46:51Z</time>
      </trkpt>
      <trkpt lat="47.00705" lon="-0.84303">
        <ele>127</ele>
        <time>2023-05-08T20:46:53Z</time>
      </trkpt>
      <trkpt lat="47.00705" lon="-0.84293">
        <ele>127</ele>
        <time>2023-05-08T20:46:54Z</time>
      </trkpt>
      <trkpt lat="47.00692" lon="-0.8429">
        <ele>127</ele>
        <time>2023-05-08T20:46:56Z</time>
      </trkpt>
      <trkpt lat="47.00652" lon="-0.84274">
        <ele>128</ele>
        <time>2023-05-08T20:47:04Z</time>
      </trkpt>
      <trkpt lat="47.00623" lon="-0.84271">
        <ele>128</ele>
        <time>2023-05-08T20:47:09Z</time>
      </trkpt>
      <trkpt lat="47.00591" lon="-0.84278">
        <ele>128</ele>
        <time>2023-05-08T20:47:14Z</time>
      </trkpt>
      <trkpt lat="47.00532" lon="-0.84312">
        <ele>129</ele>
        <time>2023-05-08T20:47:26Z</time>
      </trkpt>
      <trkpt lat="47.00515" lon="-0.84322">
        <ele>130</ele>
        <time>2023-05-08T20:47:29Z</time>
      </trkpt>
      <trkpt lat="47.00515" lon="-0.84331">
        <ele>129</ele>
        <time>2023-05-08T20:47:30Z</time>
      </trkpt>
      <trkpt lat="47.00511" lon="-0.84335">
        <ele>130</ele>
        <time>2023-05-08T20:47:31Z</time>
      </trkpt>
      <trkpt lat="47.00505" lon="-0.84334">
        <ele>130</ele>
        <time>2023-05-08T20:47:32Z</time>
      </trkpt>
      <trkpt lat="47.00502" lon="-0.84329">
        <ele>130</ele>
        <time>2023-05-08T20:47:33Z</time>
      </trkpt>
      <trkpt lat="47.00503" lon="-0.8432">
        <ele>130</ele>
        <time>2023-05-08T20:47:34Z</time>
      </trkpt>
      <trkpt lat="47.00506" lon="-0.84316">
        <ele>130</ele>
        <time>2023-05-08T20:47:35Z</time>
      </trkpt>
      <trkpt lat="47.00488" lon="-0.84263">
        <ele>131</ele>
        <time>2023-05-08T20:47:42Z</time>
      </trkpt>
      <trkpt lat="47.00473" lon="-0.8421">
        <ele>132</ele>
        <time>2023-05-08T20:47:49Z</time>
      </trkpt>
      <trkpt lat="47.0036" lon="-0.83922">
        <ele>135</ele>
        <time>2023-05-08T20:48:29Z</time>
      </trkpt>
      <trkpt lat="47.00216" lon="-0.84031">
        <ele>132</ele>
        <time>2023-05-08T20:48:58Z</time>
      </trkpt>
      <trkpt lat="47.00188" lon="-0.84048">
        <ele>132</ele>
        <time>2023-05-08T20:49:03Z</time>
      </trkpt>
      <trkpt lat="47.00159" lon="-0.84063">
        <ele>133</ele>
        <time>2023-05-08T20:49:09Z</time>
      </trkpt>
      <trkpt lat="47.00132" lon="-0.84074">
        <ele>133</ele>
        <time>2023-05-08T20:49:14Z</time>
      </trkpt>
      <trkpt lat="47.00048" lon="-0.84097">
        <ele>133</ele>
        <time>2023-05-08T20:49:29Z</time>
      </trkpt>
      <trkpt lat="47.00005" lon="-0.84108">
        <ele>132</ele>
        <time>2023-05-08T20:49:37Z</time>
      </trkpt>
      <trkpt lat="46.9995" lon="-0.84145">
        <ele>133</ele>
        <time>2023-05-08T20:49:48Z</time>
      </trkpt>
      <trkpt lat="46.99894" lon="-0.84176">
        <ele>135</ele>
        <time>2023-05-08T20:49:58Z</time>
      </trkpt>
      <trkpt lat="46.99748" lon="-0.84244">
        <ele>139</ele>
        <time>2023-05-08T20:50:25Z</time>
      </trkpt>
      <trkpt lat="46.99707" lon="-0.84246">
        <ele>140</ele>
        <time>2023-05-08T20:50:33Z</time>
      </trkpt>
      <trkpt lat="46.99699" lon="-0.84248">
        <ele>140</ele>
        <time>2023-05-08T20:50:34Z</time>
      </trkpt>
      <trkpt lat="46.99694" lon="-0.84252">
        <ele>140</ele>
        <time>2023-05-08T20:50:35Z</time>
      </trkpt>
      <trkpt lat="46.99676" lon="-0.84263">
        <ele>140</ele>
        <time>2023-05-08T20:50:39Z</time>
      </trkpt>
      <trkpt lat="46.99663" lon="-0.84264">
        <ele>141</ele>
        <time>2023-05-08T20:50:41Z</time>
      </trkpt>
      <trkpt lat="46.99649" lon="-0.8426">
        <ele>141</ele>
        <time>2023-05-08T20:50:44Z</time>
      </trkpt>
      <trkpt lat="46.99613" lon="-0.84243">
        <ele>142</ele>
        <time>2023-05-08T20:50:50Z</time>
      </trkpt>
      <trkpt lat="46.99599" lon="-0.84242">
        <ele>143</ele>
        <time>2023-05-08T20:50:53Z</time>
      </trkpt>
      <trkpt lat="46.9958" lon="-0.84244">
        <ele>143</ele>
        <time>2023-05-08T20:50:56Z</time>
      </trkpt>
      <trkpt lat="46.99538" lon="-0.84256">
        <ele>143</ele>
        <time>2023-05-08T20:51:04Z</time>
      </trkpt>
      <trkpt lat="46.9941" lon="-0.84298">
        <ele>145</ele>
        <time>2023-05-08T20:51:27Z</time>
      </trkpt>
      <trkpt lat="46.99334" lon="-0.84318">
        <ele>147</ele>
        <time>2023-05-08T20:51:41Z</time>
      </trkpt>
      <trkpt lat="46.99284" lon="-0.84325">
        <ele>150</ele>
        <time>2023-05-08T20:51:50Z</time>
      </trkpt>
      <trkpt lat="46.99265" lon="-0.84325">
        <ele>151</ele>
        <time>2023-05-08T20:51:53Z</time>
      </trkpt>
      <trkpt lat="46.99229" lon="-0.8432">
        <ele>152</ele>
        <time>2023-05-08T20:52:00Z</time>
      </trkpt>
      <trkpt lat="46.98978" lon="-0.84286">
        <ele>155</ele>
        <time>2023-05-08T20:52:44Z</time>
      </trkpt>
      <trkpt lat="46.98959" lon="-0.84293">
        <ele>155</ele>
        <time>2023-05-08T20:52:48Z</time>
      </trkpt>
      <trkpt lat="46.98955" lon="-0.84299">
        <ele>155</ele>
        <time>2023-05-08T20:52:49Z</time>
      </trkpt>
      <trkpt lat="46.98946" lon="-0.84303">
        <ele>155</ele>
        <time>2023-05-08T20:52:51Z</time>
      </trkpt>
      <trkpt lat="46.98942" lon="-0.84302">
        <ele>155</ele>
        <time>2023-05-08T20:52:51Z</time>
      </trkpt>
      <trkpt lat="46.98934" lon="-0.84294">
        <ele>156</ele>
        <time>2023-05-08T20:52:53Z</time>
      </trkpt>
      <trkpt lat="46.98882" lon="-0.84353">
        <ele>155</ele>
        <time>2023-05-08T20:53:05Z</time>
      </trkpt>
      <trkpt lat="46.98851" lon="-0.84388">
        <ele>154</ele>
        <time>2023-05-08T20:53:12Z</time>
      </trkpt>
      <trkpt lat="46.988" lon="-0.84444">
        <ele>153</ele>
        <time>2023-05-08T20:53:23Z</time>
      </trkpt>
      <trkpt lat="46.98803" lon="-0.84454">
        <ele>153</ele>
        <time>2023-05-08T20:53:24Z</time>
      </trkpt>
      <trkpt lat="46.98802" lon="-0.84466">
        <ele>152</ele>
        <time>2023-05-08T20:53:26Z</time>
      </trkpt>
      <trkpt lat="46.98797" lon="-0.84474">
        <ele>152</ele>
        <time>2023-05-08T20:53:27Z</time>
      </trkpt>
      <trkpt lat="46.9879" lon="-0.84478">
        <ele>152</ele>
        <time>2023-05-08T20:53:28Z</time>
      </trkpt>
      <trkpt lat="46.98781" lon="-0.84474">
        <ele>152</ele>
        <time>2023-05-08T20:53:30Z</time>
      </trkpt>
      <trkpt lat="46.98777" lon="-0.84469">
        <ele>152</ele>
        <time>2023-05-08T20:53:31Z</time>
      </trkpt>
      <trkpt lat="46.98774" lon="-0.84456">
        <ele>152</ele>
        <time>2023-05-08T20:53:33Z</time>
      </trkpt>
      <trkpt lat="46.98761" lon="-0.84458">
        <ele>152</ele>
        <time>2023-05-08T20:53:35Z</time>
      </trkpt>
      <trkpt lat="46.98549" lon="-0.84461">
        <ele>150</ele>
        <time>2023-05-08T20:54:13Z</time>
      </trkpt>
      <trkpt lat="46.98546" lon="-0.84481">
        <ele>150</ele>
        <time>2023-05-08T20:54:15Z</time>
      </trkpt>
      <trkpt lat="46.98536" lon="-0.84658">
        <ele>149</ele>
        <time>2023-05-08T20:54:37Z</time>
      </trkpt>
      <trkpt lat="46.98521" lon="-0.8476">
        <ele>148</ele>
        <time>2023-05-08T20:54:50Z</time>
      </trkpt>
      <trkpt lat="46.98519" lon="-0.84786">
        <ele>148</ele>
        <time>2023-05-08T20:54:53Z</time>
      </trkpt>
      <trkpt lat="46.98518" lon="-0.84821">
        <ele>148</ele>
        <time>2023-05-08T20:54:57Z</time>
      </trkpt>
      <trkpt lat="46.98522" lon="-0.84976">
        <ele>148</ele>
        <time>2023-05-08T20:55:16Z</time>
      </trkpt>
      <trkpt lat="46.98528" lon="-0.85089">
        <ele>149</ele>
        <time>2023-05-08T20:55:30Z</time>
      </trkpt>
      <trkpt lat="46.98533" lon="-0.85146">
        <ele>151</ele>
        <time>2023-05-08T20:55:37Z</time>
      </trkpt>
      <trkpt lat="46.98558" lon="-0.85287">
        <ele>152</ele>
        <time>2023-05-08T20:55:54Z</time>
      </trkpt>
      <trkpt lat="46.98561" lon="-0.85323">
        <ele>153</ele>
        <time>2023-05-08T20:55:59Z</time>
      </trkpt>
      <trkpt lat="46.98563" lon="-0.85398">
        <ele>155</ele>
        <time>2023-05-08T20:56:08Z</time>
      </trkpt>
      <trkpt lat="46.98561" lon="-0.85432">
        <ele>156</ele>
        <time>2023-05-08T20:56:12Z</time>
      </trkpt>
      <trkpt lat="46.98555" lon="-0.85497">
        <ele>158</ele>
        <time>2023-05-08T20:56:20Z</time>
      </trkpt>
      <trkpt lat="46.98552" lon="-0.85519">
        <ele>159</ele>
        <time>2023-05-08T20:56:23Z</time>
      </trkpt>
      <trkpt lat="46.98542" lon="-0.85563">
        <ele>161</ele>
        <time>2023-05-08T20:56:28Z</time>
      </trkpt>
      <trkpt lat="46.98539" lon="-0.85582">
        <ele>161</ele>
        <time>2023-05-08T20:56:31Z</time>
      </trkpt>
      <trkpt lat="46.98542" lon="-0.85608">
        <ele>163</ele>
        <time>2023-05-08T20:56:34Z</time>
      </trkpt>
      <trkpt lat="46.98547" lon="-0.85622">
        <ele>164</ele>
        <time>2023-05-08T20:56:36Z</time>
      </trkpt>
      <trkpt lat="46.98556" lon="-0.85638">
        <ele>165</ele>
        <time>2023-05-08T20:56:38Z</time>
      </trkpt>
      <trkpt lat="46.98625" lon="-0.85756">
        <ele>173</ele>
        <time>2023-05-08T20:56:57Z</time>
      </trkpt>
      <trkpt lat="46.98659" lon="-0.85825">
        <ele>177</ele>
        <time>2023-05-08T20:57:07Z</time>
      </trkpt>
      <trkpt lat="46.98716" lon="-0.85964">
        <ele>178</ele>
        <time>2023-05-08T20:57:27Z</time>
      </trkpt>
      <trkpt lat="46.9874" lon="-0.86023">
        <ele>179</ele>
        <time>2023-05-08T20:57:35Z</time>
      </trkpt>
      <trkpt lat="46.988" lon="-0.86182">
        <ele>181</ele>
        <time>2023-05-08T20:57:57Z</time>
      </trkpt>
      <trkpt lat="46.98808" lon="-0.86197">
        <ele>181</ele>
        <time>2023-05-08T20:58:00Z</time>
      </trkpt>
      <trkpt lat="46.98839" lon="-0.86239">
        <ele>181</ele>
        <time>2023-05-08T20:58:07Z</time>
      </trkpt>
      <trkpt lat="46.98847" lon="-0.86254">
        <ele>181</ele>
        <time>2023-05-08T20:58:10Z</time>
      </trkpt>
      <trkpt lat="46.98894" lon="-0.86423">
        <ele>182</ele>
        <time>2023-05-08T20:58:32Z</time>
      </trkpt>
      <trkpt lat="46.989" lon="-0.86439">
        <ele>182</ele>
        <time>2023-05-08T20:58:34Z</time>
      </trkpt>
      <trkpt lat="46.98955" lon="-0.86538">
        <ele>182</ele>
        <time>2023-05-08T20:58:49Z</time>
      </trkpt>
      <trkpt lat="46.98971" lon="-0.86575">
        <ele>182</ele>
        <time>2023-05-08T20:58:55Z</time>
      </trkpt>
      <trkpt lat="46.99001" lon="-0.86672">
        <ele>180</ele>
        <time>2023-05-08T20:59:08Z</time>
      </trkpt>
      <trkpt lat="46.99006" lon="-0.86692">
        <ele>179</ele>
        <time>2023-05-08T20:59:10Z</time>
      </trkpt>
      <trkpt lat="46.99015" lon="-0.86747">
        <ele>177</ele>
        <time>2023-05-08T20:59:17Z</time>
      </trkpt>
      <trkpt lat="46.99035" lon="-0.86828">
        <ele>175</ele>
        <time>2023-05-08T20:59:28Z</time>
      </trkpt>
      <trkpt lat="46.99042" lon="-0.86856">
        <ele>176</ele>
        <time>2023-05-08T20:59:31Z</time>
      </trkpt>
      <trkpt lat="46.99052" lon="-0.86883">
        <ele>176</ele>
        <time>2023-05-08T20:59:35Z</time>
      </trkpt>
      <trkpt lat="46.99063" lon="-0.86906">
        <ele>176</ele>
        <time>2023-05-08T20:59:38Z</time>
      </trkpt>
      <trkpt lat="46.99084" lon="-0.86931">
        <ele>176</ele>
        <time>2023-05-08T20:59:43Z</time>
      </trkpt>
      <trkpt lat="46.99167" lon="-0.8701">
        <ele>177</ele>
        <time>2023-05-08T21:00:01Z</time>
      </trkpt>
      <trkpt lat="46.99181" lon="-0.8703">
        <ele>176</ele>
        <time>2023-05-08T21:00:04Z</time>
      </trkpt>
      <trkpt lat="46.993" lon="-0.87234">
        <ele>177</ele>
        <time>2023-05-08T21:00:37Z</time>
      </trkpt>
      <trkpt lat="46.99341" lon="-0.8731">
        <ele>177</ele>
        <time>2023-05-08T21:00:49Z</time>
      </trkpt>
      <trkpt lat="46.99447" lon="-0.87584">
        <ele>176</ele>
        <time>2023-05-08T21:01:27Z</time>
      </trkpt>
      <trkpt lat="46.99577" lon="-0.87932">
        <ele>175</ele>
        <time>2023-05-08T21:02:15Z</time>
      </trkpt>
      <trkpt lat="46.99594" lon="-0.87986">
        <ele>174</ele>
        <time>2023-05-08T21:02:22Z</time>
      </trkpt>
      <trkpt lat="46.99629" lon="-0.88104">
        <ele>169</ele>
        <time>2023-05-08T21:02:38Z</time>
      </trkpt>
      <trkpt lat="46.99638" lon="-0.8813">
        <ele>168</ele>
        <time>2023-05-08T21:02:41Z</time>
      </trkpt>
      <trkpt lat="46.99662" lon="-0.88184">
        <ele>164</ele>
        <time>2023-05-08T21:02:49Z</time>
      </trkpt>
      <trkpt lat="46.99666" lon="-0.88189">
        <ele>164</ele>
        <time>2023-05-08T21:02:50Z</time>
      </trkpt>
      <trkpt lat="46.99666" lon="-0.88196">
        <ele>164</ele>
        <time>2023-05-08T21:02:51Z</time>
      </trkpt>
      <trkpt lat="46.9967" lon="-0.88215">
        <ele>163</ele>
        <time>2023-05-08T21:02:53Z</time>
      </trkpt>
      <trkpt lat="46.99728" lon="-0.88369">
        <ele>165</ele>
        <time>2023-05-08T21:03:15Z</time>
      </trkpt>
      <trkpt lat="46.9975" lon="-0.8841">
        <ele>167</ele>
        <time>2023-05-08T21:03:21Z</time>
      </trkpt>
      <trkpt lat="46.99755" lon="-0.8843">
        <ele>167</ele>
        <time>2023-05-08T21:03:24Z</time>
      </trkpt>
      <trkpt lat="46.99757" lon="-0.88448">
        <ele>167</ele>
        <time>2023-05-08T21:03:26Z</time>
      </trkpt>
      <trkpt lat="46.99747" lon="-0.88614">
        <ele>164</ele>
        <time>2023-05-08T21:03:46Z</time>
      </trkpt>
      <trkpt lat="46.99737" lon="-0.88694">
        <ele>160</ele>
        <time>2023-05-08T21:03:56Z</time>
      </trkpt>
      <trkpt lat="46.99726" lon="-0.88855">
        <ele>149</ele>
        <time>2023-05-08T21:04:16Z</time>
      </trkpt>
      <trkpt lat="46.99722" lon="-0.88883">
        <ele>148</ele>
        <time>2023-05-08T21:04:19Z</time>
      </trkpt>
      <trkpt lat="46.99714" lon="-0.88915">
        <ele>146</ele>
        <time>2023-05-08T21:04:23Z</time>
      </trkpt>
      <trkpt lat="46.99694" lon="-0.88977">
        <ele>144</ele>
        <time>2023-05-08T21:04:31Z</time>
      </trkpt>
      <trkpt lat="46.9969" lon="-0.89001">
        <ele>144</ele>
        <time>2023-05-08T21:04:34Z</time>
      </trkpt>
      <trkpt lat="46.99687" lon="-0.891">
        <ele>140</ele>
        <time>2023-05-08T21:04:47Z</time>
      </trkpt>
      <trkpt lat="46.99693" lon="-0.89119">
        <ele>140</ele>
        <time>2023-05-08T21:04:49Z</time>
      </trkpt>
      <trkpt lat="46.99714" lon="-0.89181">
        <ele>141</ele>
        <time>2023-05-08T21:04:57Z</time>
      </trkpt>
      <trkpt lat="46.99724" lon="-0.89218">
        <ele>141</ele>
        <time>2023-05-08T21:05:02Z</time>
      </trkpt>
      <trkpt lat="46.99727" lon="-0.89218">
        <ele>141</ele>
        <time>2023-05-08T21:05:03Z</time>
      </trkpt>
      <trkpt lat="46.99733" lon="-0.89221">
        <ele>141</ele>
        <time>2023-05-08T21:05:04Z</time>
      </trkpt>
      <trkpt lat="46.99737" lon="-0.89228">
        <ele>141</ele>
        <time>2023-05-08T21:05:05Z</time>
      </trkpt>
      <trkpt lat="46.99749" lon="-0.89224">
        <ele>142</ele>
        <time>2023-05-08T21:05:07Z</time>
      </trkpt>
      <trkpt lat="46.99796" lon="-0.89189">
        <ele>144</ele>
        <time>2023-05-08T21:05:17Z</time>
      </trkpt>
      <trkpt lat="46.99844" lon="-0.8916">
        <ele>144</ele>
        <time>2023-05-08T21:05:26Z</time>
      </trkpt>
      <trkpt lat="46.99889" lon="-0.8914">
        <ele>145</ele>
        <time>2023-05-08T21:05:34Z</time>
      </trkpt>
      <trkpt lat="46.99924" lon="-0.89129">
        <ele>146</ele>
        <time>2023-05-08T21:05:41Z</time>
      </trkpt>
      <trkpt lat="46.99972" lon="-0.89119">
        <ele>145</ele>
        <time>2023-05-08T21:05:49Z</time>
      </trkpt>
      <trkpt lat="47.0016" lon="-0.89091">
        <ele>144</ele>
        <time>2023-05-08T21:06:23Z</time>
      </trkpt>
      <trkpt lat="47.00174" lon="-0.89091">
        <ele>144</ele>
        <time>2023-05-08T21:06:25Z</time>
      </trkpt>
      <trkpt lat="47.00194" lon="-0.89096">
        <ele>144</ele>
        <time>2023-05-08T21:06:29Z</time>
      </trkpt>
      <trkpt lat="47.00207" lon="-0.89104">
        <ele>144</ele>
        <time>2023-05-08T21:06:31Z</time>
      </trkpt>
      <trkpt lat="47.00212" lon="-0.89094">
        <ele>144</ele>
        <time>2023-05-08T21:06:33Z</time>
      </trkpt>
      <trkpt lat="47.00219" lon="-0.89086">
        <ele>143</ele>
        <time>2023-05-08T21:06:35Z</time>
      </trkpt>
      <trkpt lat="47.00227" lon="-0.89082">
        <ele>143</ele>
        <time>2023-05-08T21:06:36Z</time>
      </trkpt>
      <trkpt lat="47.00235" lon="-0.89082">
        <ele>143</ele>
        <time>2023-05-08T21:06:37Z</time>
      </trkpt>
      <trkpt lat="47.00243" lon="-0.89086">
        <ele>143</ele>
        <time>2023-05-08T21:06:39Z</time>
      </trkpt>
      <trkpt lat="47.00249" lon="-0.89092">
        <ele>143</ele>
        <time>2023-05-08T21:06:40Z</time>
      </trkpt>
      <trkpt lat="47.00254" lon="-0.891">
        <ele>143</ele>
        <time>2023-05-08T21:06:42Z</time>
      </trkpt>
      <trkpt lat="47.00257" lon="-0.89109">
        <ele>143</ele>
        <time>2023-05-08T21:06:43Z</time>
      </trkpt>
      <trkpt lat="47.00258" lon="-0.8912">
        <ele>143</ele>
        <time>2023-05-08T21:06:44Z</time>
      </trkpt>
      <trkpt lat="47.00256" lon="-0.89132">
        <ele>143</ele>
        <time>2023-05-08T21:06:46Z</time>
      </trkpt>
      <trkpt lat="47.00253" lon="-0.89142">
        <ele>144</ele>
        <time>2023-05-08T21:06:47Z</time>
      </trkpt>
      <trkpt lat="47.00247" lon="-0.89151">
        <ele>144</ele>
        <time>2023-05-08T21:06:48Z</time>
      </trkpt>
      <trkpt lat="47.0024" lon="-0.89157">
        <ele>144</ele>
        <time>2023-05-08T21:06:50Z</time>
      </trkpt>
      <trkpt lat="47.00232" lon="-0.89159">
        <ele>144</ele>
        <time>2023-05-08T21:06:51Z</time>
      </trkpt>
      <trkpt lat="47.00223" lon="-0.89157">
        <ele>144</ele>
        <time>2023-05-08T21:06:53Z</time>
      </trkpt>
      <trkpt lat="47.00216" lon="-0.89152">
        <ele>145</ele>
        <time>2023-05-08T21:06:54Z</time>
      </trkpt>
      <trkpt lat="47.0021" lon="-0.89143">
        <ele>145</ele>
        <time>2023-05-08T21:06:56Z</time>
      </trkpt>
      <trkpt lat="47.00167" lon="-0.89186">
        <ele>146</ele>
        <time>2023-05-08T21:07:05Z</time>
      </trkpt>
      <trkpt lat="47.00169" lon="-0.89194">
        <ele>146</ele>
        <time>2023-05-08T21:07:06Z</time>
      </trkpt>
      <trkpt lat="47.00168" lon="-0.89198">
        <ele>146</ele>
        <time>2023-05-08T21:07:07Z</time>
      </trkpt>
      <trkpt lat="47.00164" lon="-0.89204">
        <ele>146</ele>
        <time>2023-05-08T21:07:08Z</time>
      </trkpt>
      <trkpt lat="47.00176" lon="-0.89239">
        <ele>146</ele>
        <time>2023-05-08T21:07:12Z</time>
      </trkpt>
      <trkpt lat="47.00189" lon="-0.89292">
        <ele>145</ele>
        <time>2023-05-08T21:07:19Z</time>
      </trkpt>
      <trkpt lat="47.00197" lon="-0.89337">
        <ele>145</ele>
        <time>2023-05-08T21:07:25Z</time>
      </trkpt>
      <trkpt lat="47.00208" lon="-0.8942">
        <ele>145</ele>
        <time>2023-05-08T21:07:35Z</time>
      </trkpt>
      <trkpt lat="47.00212" lon="-0.89422">
        <ele>144</ele>
        <time>2023-05-08T21:07:36Z</time>
      </trkpt>
      <trkpt lat="47.00213" lon="-0.89425">
        <ele>144</ele>
        <time>2023-05-08T21:07:36Z</time>
      </trkpt>
      <trkpt lat="47.00211" lon="-0.8943">
        <ele>144</ele>
        <time>2023-05-08T21:07:37Z</time>
      </trkpt>
      <trkpt lat="47.00209" lon="-0.89432">
        <ele>144</ele>
        <time>2023-05-08T21:07:38Z</time>
      </trkpt>
      <trkpt lat="47.00209" lon="-0.89443">
        <ele>144</ele>
        <time>2023-05-08T21:07:39Z</time>
      </trkpt>
      <trkpt lat="47.00211" lon="-0.89458">
        <ele>144</ele>
        <time>2023-05-08T21:07:41Z</time>
      </trkpt>
      <trkpt lat="47.00227" lon="-0.89534">
        <ele>144</ele>
        <time>2023-05-08T21:07:50Z</time>
      </trkpt>
      <trkpt lat="47.00232" lon="-0.89582">
        <ele>144</ele>
        <time>2023-05-08T21:07:56Z</time>
      </trkpt>
      <trkpt lat="47.00235" lon="-0.89613">
        <ele>143</ele>
        <time>2023-05-08T21:08:00Z</time>
      </trkpt>
      <trkpt lat="47.00256" lon="-0.89705">
        <ele>140</ele>
        <time>2023-05-08T21:08:12Z</time>
      </trkpt>
      <trkpt lat="47.00263" lon="-0.89727">
        <ele>139</ele>
        <time>2023-05-08T21:08:15Z</time>
      </trkpt>
      <trkpt lat="47.0029" lon="-0.89794">
        <ele>136</ele>
        <time>2023-05-08T21:08:24Z</time>
      </trkpt>
      <trkpt lat="47.003" lon="-0.89837">
        <ele>135</ele>
        <time>2023-05-08T21:08:30Z</time>
      </trkpt>
      <trkpt lat="47.00312" lon="-0.89879">
        <ele>135</ele>
        <time>2023-05-08T21:08:35Z</time>
      </trkpt>
      <trkpt lat="47.00425" lon="-0.90149">
        <ele>129</ele>
        <time>2023-05-08T21:09:14Z</time>
      </trkpt>
      <trkpt lat="47.00448" lon="-0.9019">
        <ele>130</ele>
        <time>2023-05-08T21:09:20Z</time>
      </trkpt>
      <trkpt lat="47.00503" lon="-0.90276">
        <ele>129</ele>
        <time>2023-05-08T21:09:34Z</time>
      </trkpt>
      <trkpt lat="47.00529" lon="-0.90315">
        <ele>127</ele>
        <time>2023-05-08T21:09:41Z</time>
      </trkpt>
      <trkpt lat="47.00544" lon="-0.90338">
        <ele>126</ele>
        <time>2023-05-08T21:09:45Z</time>
      </trkpt>
      <trkpt lat="47.00553" lon="-0.90361">
        <ele>126</ele>
        <time>2023-05-08T21:09:48Z</time>
      </trkpt>
      <trkpt lat="47.00559" lon="-0.9038">
        <ele>126</ele>
        <time>2023-05-08T21:09:51Z</time>
      </trkpt>
      <trkpt lat="47.00563" lon="-0.9041">
        <ele>126</ele>
        <time>2023-05-08T21:09:54Z</time>
      </trkpt>
      <trkpt lat="47.00562" lon="-0.90436">
        <ele>126</ele>
        <time>2023-05-08T21:09:58Z</time>
      </trkpt>
      <trkpt lat="47.00552" lon="-0.90513">
        <ele>127</ele>
        <time>2023-05-08T21:10:07Z</time>
      </trkpt>
      <trkpt lat="47.00552" lon="-0.90539">
        <ele>127</ele>
        <time>2023-05-08T21:10:10Z</time>
      </trkpt>
      <trkpt lat="47.00553" lon="-0.90553">
        <ele>127</ele>
        <time>2023-05-08T21:10:12Z</time>
      </trkpt>
      <trkpt lat="47.00558" lon="-0.90578">
        <ele>126</ele>
        <time>2023-05-08T21:10:15Z</time>
      </trkpt>
      <trkpt lat="47.00566" lon="-0.90601">
        <ele>126</ele>
        <time>2023-05-08T21:10:18Z</time>
      </trkpt>
      <trkpt lat="47.00577" lon="-0.90622">
        <ele>126</ele>
        <time>2023-05-08T21:10:21Z</time>
      </trkpt>
      <trkpt lat="47.006" lon="-0.90657">
        <ele>125</ele>
        <time>2023-05-08T21:10:27Z</time>
      </trkpt>
      <trkpt lat="47.00616" lon="-0.90693">
        <ele>124</ele>
        <time>2023-05-08T21:10:33Z</time>
      </trkpt>
      <trkpt lat="47.0063" lon="-0.90741">
        <ele>124</ele>
        <time>2023-05-08T21:10:39Z</time>
      </trkpt>
      <trkpt lat="47.00646" lon="-0.90809">
        <ele>124</ele>
        <time>2023-05-08T21:10:48Z</time>
      </trkpt>
      <trkpt lat="47.00701" lon="-0.9099">
        <ele>121</ele>
        <time>2023-05-08T21:11:12Z</time>
      </trkpt>
      <trkpt lat="47.00719" lon="-0.91065">
        <ele>120</ele>
        <time>2023-05-08T21:11:21Z</time>
      </trkpt>
      <trkpt lat="47.00746" lon="-0.91143">
        <ele>120</ele>
        <time>2023-05-08T21:11:32Z</time>
      </trkpt>
      <trkpt lat="47.00754" lon="-0.91176">
        <ele>120</ele>
        <time>2023-05-08T21:11:36Z</time>
      </trkpt>
      <trkpt lat="47.00764" lon="-0.91245">
        <ele>119</ele>
        <time>2023-05-08T21:11:45Z</time>
      </trkpt>
      <trkpt lat="47.00777" lon="-0.91351">
        <ele>117</ele>
        <time>2023-05-08T21:11:58Z</time>
      </trkpt>
      <trkpt lat="47.00778" lon="-0.91382">
        <ele>116</ele>
        <time>2023-05-08T21:12:02Z</time>
      </trkpt>
      <trkpt lat="47.00778" lon="-0.91438">
        <ele>115</ele>
        <time>2023-05-08T21:12:08Z</time>
      </trkpt>
      <trkpt lat="47.0078" lon="-0.91465">
        <ele>115</ele>
        <time>2023-05-08T21:12:12Z</time>
      </trkpt>
      <trkpt lat="47.00789" lon="-0.91511">
        <ele>114</ele>
        <time>2023-05-08T21:12:17Z</time>
      </trkpt>
      <trkpt lat="47.00813" lon="-0.91581">
        <ele>113</ele>
        <time>2023-05-08T21:12:27Z</time>
      </trkpt>
      <trkpt lat="47.00836" lon="-0.91643">
        <ele>111</ele>
        <time>2023-05-08T21:12:36Z</time>
      </trkpt>
      <trkpt lat="47.00854" lon="-0.91682">
        <ele>111</ele>
        <time>2023-05-08T21:12:41Z</time>
      </trkpt>
      <trkpt lat="47.00913" lon="-0.9179">
        <ele>111</ele>
        <time>2023-05-08T21:12:58Z</time>
      </trkpt>
      <trkpt lat="47.00943" lon="-0.91855">
        <ele>112</ele>
        <time>2023-05-08T21:13:08Z</time>
      </trkpt>
      <trkpt lat="47.00956" lon="-0.91888">
        <ele>112</ele>
        <time>2023-05-08T21:13:12Z</time>
      </trkpt>
      <trkpt lat="47.00979" lon="-0.91959">
        <ele>113</ele>
        <time>2023-05-08T21:13:22Z</time>
      </trkpt>
      <trkpt lat="47.00986" lon="-0.9199">
        <ele>113</ele>
        <time>2023-05-08T21:13:26Z</time>
      </trkpt>
      <trkpt lat="47.00989" lon="-0.92012">
        <ele>113</ele>
        <time>2023-05-08T21:13:28Z</time>
      </trkpt>
      <trkpt lat="47.00997" lon="-0.92147">
        <ele>111</ele>
        <time>2023-05-08T21:13:45Z</time>
      </trkpt>
      <trkpt lat="47.01002" lon="-0.92188">
        <ele>111</ele>
        <time>2023-05-08T21:13:50Z</time>
      </trkpt>
      <trkpt lat="47.01008" lon="-0.9222">
        <ele>111</ele>
        <time>2023-05-08T21:13:54Z</time>
      </trkpt>
      <trkpt lat="47.01027" lon="-0.92285">
        <ele>110</ele>
        <time>2023-05-08T21:14:02Z</time>
      </trkpt>
      <trkpt lat="47.01034" lon="-0.92304">
        <ele>110</ele>
        <time>2023-05-08T21:14:05Z</time>
      </trkpt>
      <trkpt lat="47.01041" lon="-0.92317">
        <ele>110</ele>
        <time>2023-05-08T21:14:07Z</time>
      </trkpt>
      <trkpt lat="47.0105" lon="-0.9233">
        <ele>110</ele>
        <time>2023-05-08T21:14:09Z</time>
      </trkpt>
      <trkpt lat="47.01145" lon="-0.92419">
        <ele>111</ele>
        <time>2023-05-08T21:14:29Z</time>
      </trkpt>
      <trkpt lat="47.01211" lon="-0.9249">
        <ele>109</ele>
        <time>2023-05-08T21:14:44Z</time>
      </trkpt>
      <trkpt lat="47.01231" lon="-0.92506">
        <ele>108</ele>
        <time>2023-05-08T21:14:48Z</time>
      </trkpt>
      <trkpt lat="47.01265" lon="-0.92525">
        <ele>108</ele>
        <time>2023-05-08T21:14:55Z</time>
      </trkpt>
      <trkpt lat="47.01287" lon="-0.92532">
        <ele>108</ele>
        <time>2023-05-08T21:14:59Z</time>
      </trkpt>
      <trkpt lat="47.01352" lon="-0.92535">
        <ele>109</ele>
        <time>2023-05-08T21:15:10Z</time>
      </trkpt>
      <trkpt lat="47.01363" lon="-0.92538">
        <ele>109</ele>
        <time>2023-05-08T21:15:12Z</time>
      </trkpt>
      <trkpt lat="47.01401" lon="-0.92564">
        <ele>108</ele>
        <time>2023-05-08T21:15:20Z</time>
      </trkpt>
      <trkpt lat="47.01462" lon="-0.92613">
        <ele>106</ele>
        <time>2023-05-08T21:15:32Z</time>
      </trkpt>
      <trkpt lat="47.01491" lon="-0.92626">
        <ele>106</ele>
        <time>2023-05-08T21:15:37Z</time>
      </trkpt>
      <trkpt lat="47.01496" lon="-0.92625">
        <ele>106</ele>
        <time>2023-05-08T21:15:38Z</time>
      </trkpt>
      <trkpt lat="47.01501" lon="-0.92624">
        <ele>106</ele>
        <time>2023-05-08T21:15:39Z</time>
      </trkpt>
      <trkpt lat="47.01505" lon="-0.9261">
        <ele>106</ele>
        <time>2023-05-08T21:15:41Z</time>
      </trkpt>
      <trkpt lat="47.01509" lon="-0.92605">
        <ele>106</ele>
        <time>2023-05-08T21:15:42Z</time>
      </trkpt>
      <trkpt lat="47.01561" lon="-0.92578">
        <ele>105</ele>
        <time>2023-05-08T21:15:52Z</time>
      </trkpt>
      <trkpt lat="47.01585" lon="-0.9257">
        <ele>105</ele>
        <time>2023-05-08T21:15:56Z</time>
      </trkpt>
      <trkpt lat="47.01632" lon="-0.92559">
        <ele>102</ele>
        <time>2023-05-08T21:16:05Z</time>
      </trkpt>
      <trkpt lat="47.0168" lon="-0.92539">
        <ele>98</ele>
        <time>2023-05-08T21:16:13Z</time>
      </trkpt>
      <trkpt lat="47.01724" lon="-0.9251">
        <ele>96</ele>
        <time>2023-05-08T21:16:22Z</time>
      </trkpt>
      <trkpt lat="47.01767" lon="-0.92471">
        <ele>94</ele>
        <time>2023-05-08T21:16:31Z</time>
      </trkpt>
      <trkpt lat="47.01979" lon="-0.92246">
        <ele>98</ele>
        <time>2023-05-08T21:17:18Z</time>
      </trkpt>
      <trkpt lat="47.02156" lon="-0.92063">
        <ele>102</ele>
        <time>2023-05-08T21:17:56Z</time>
      </trkpt>
      <trkpt lat="47.02961" lon="-0.91213">
        <ele>106</ele>
        <time>2023-05-08T21:20:53Z</time>
      </trkpt>
      <trkpt lat="47.02994" lon="-0.91169">
        <ele>107</ele>
        <time>2023-05-08T21:21:00Z</time>
      </trkpt>
      <trkpt lat="47.03031" lon="-0.91135">
        <ele>108</ele>
        <time>2023-05-08T21:21:08Z</time>
      </trkpt>
      <trkpt lat="47.03045" lon="-0.91114">
        <ele>108</ele>
        <time>2023-05-08T21:21:12Z</time>
      </trkpt>
      <trkpt lat="47.03056" lon="-0.91071">
        <ele>108</ele>
        <time>2023-05-08T21:21:17Z</time>
      </trkpt>
      <trkpt lat="47.03065" lon="-0.91054">
        <ele>108</ele>
        <time>2023-05-08T21:21:20Z</time>
      </trkpt>
      <trkpt lat="47.03071" lon="-0.9105">
        <ele>108</ele>
        <time>2023-05-08T21:21:21Z</time>
      </trkpt>
      <trkpt lat="47.03079" lon="-0.91046">
        <ele>108</ele>
        <time>2023-05-08T21:21:23Z</time>
      </trkpt>
      <trkpt lat="47.03084" lon="-0.91047">
        <ele>108</ele>
        <time>2023-05-08T21:21:24Z</time>
      </trkpt>
      <trkpt lat="47.03089" lon="-0.91052">
        <ele>108</ele>
        <time>2023-05-08T21:21:25Z</time>
      </trkpt>
      <trkpt lat="47.03091" lon="-0.91044">
        <ele>108</ele>
        <time>2023-05-08T21:21:26Z</time>
      </trkpt>
      <trkpt lat="47.03101" lon="-0.91036">
        <ele>108</ele>
        <time>2023-05-08T21:21:28Z</time>
      </trkpt>
      <trkpt lat="47.03123" lon="-0.91026">
        <ele>109</ele>
        <time>2023-05-08T21:21:32Z</time>
      </trkpt>
      <trkpt lat="47.03141" lon="-0.9101">
        <ele>109</ele>
        <time>2023-05-08T21:21:36Z</time>
      </trkpt>
      <trkpt lat="47.03174" lon="-0.90972">
        <ele>110</ele>
        <time>2023-05-08T21:21:43Z</time>
      </trkpt>
      <trkpt lat="47.03178" lon="-0.90966">
        <ele>110</ele>
        <time>2023-05-08T21:21:44Z</time>
      </trkpt>
      <trkpt lat="47.03179" lon="-0.90957">
        <ele>110</ele>
        <time>2023-05-08T21:21:45Z</time>
      </trkpt>
      <trkpt lat="47.03177" lon="-0.90944">
        <ele>109</ele>
        <time>2023-05-08T21:21:47Z</time>
      </trkpt>
      <trkpt lat="47.03166" lon="-0.90931">
        <ele>109</ele>
        <time>2023-05-08T21:21:49Z</time>
      </trkpt>
      <trkpt lat="47.03096" lon="-0.90861">
        <ele>109</ele>
        <time>2023-05-08T21:22:04Z</time>
      </trkpt>
      <trkpt lat="47.03068" lon="-0.9083">
        <ele>109</ele>
        <time>2023-05-08T21:22:11Z</time>
      </trkpt>
      <trkpt lat="47.02955" lon="-0.90671">
        <ele>112</ele>
        <time>2023-05-08T21:22:38Z</time>
      </trkpt>
      <trkpt lat="47.02883" lon="-0.90584">
        <ele>110</ele>
        <time>2023-05-08T21:22:55Z</time>
      </trkpt>
      <trkpt lat="47.0286" lon="-0.9055">
        <ele>110</ele>
        <time>2023-05-08T21:23:01Z</time>
      </trkpt>
      <trkpt lat="47.02845" lon="-0.90531">
        <ele>110</ele>
        <time>2023-05-08T21:23:04Z</time>
      </trkpt>
      <trkpt lat="47.02831" lon="-0.90523">
        <ele>110</ele>
        <time>2023-05-08T21:23:07Z</time>
      </trkpt>
      <trkpt lat="47.0281" lon="-0.90513">
        <ele>110</ele>
        <time>2023-05-08T21:23:11Z</time>
      </trkpt>
      <trkpt lat="47.02738" lon="-0.90488">
        <ele>109</ele>
        <time>2023-05-08T21:23:24Z</time>
      </trkpt>
      <trkpt lat="47.0271" lon="-0.90475">
        <ele>110</ele>
        <time>2023-05-08T21:23:29Z</time>
      </trkpt>
      <trkpt lat="47.026" lon="-0.90394">
        <ele>110</ele>
        <time>2023-05-08T21:23:51Z</time>
      </trkpt>
      <trkpt lat="47.02533" lon="-0.90368">
        <ele>111</ele>
        <time>2023-05-08T21:24:04Z</time>
      </trkpt>
      <trkpt lat="47.02519" lon="-0.9036">
        <ele>111</ele>
        <time>2023-05-08T21:24:06Z</time>
      </trkpt>
      <trkpt lat="47.02435" lon="-0.90293">
        <ele>112</ele>
        <time>2023-05-08T21:24:23Z</time>
      </trkpt>
      <trkpt lat="47.0234" lon="-0.90231">
        <ele>114</ele>
        <time>2023-05-08T21:24:42Z</time>
      </trkpt>
      <trkpt lat="47.02306" lon="-0.902">
        <ele>117</ele>
        <time>2023-05-08T21:24:49Z</time>
      </trkpt>
      <trkpt lat="47.02276" lon="-0.9017">
        <ele>120</ele>
        <time>2023-05-08T21:24:55Z</time>
      </trkpt>
      <trkpt lat="47.02264" lon="-0.90161">
        <ele>121</ele>
        <time>2023-05-08T21:24:58Z</time>
      </trkpt>
      <trkpt lat="47.02127" lon="-0.90098">
        <ele>121</ele>
        <time>2023-05-08T21:25:23Z</time>
      </trkpt>
      <trkpt lat="47.02082" lon="-0.90075">
        <ele>122</ele>
        <time>2023-05-08T21:25:32Z</time>
      </trkpt>
      <trkpt lat="47.0205" lon="-0.90062">
        <ele>122</ele>
        <time>2023-05-08T21:25:38Z</time>
      </trkpt>
      <trkpt lat="47.02019" lon="-0.90055">
        <ele>122</ele>
        <time>2023-05-08T21:25:43Z</time>
      </trkpt>
      <trkpt lat="47.01915" lon="-0.9004">
        <ele>124</ele>
        <time>2023-05-08T21:26:02Z</time>
      </trkpt>
      <trkpt lat="47.0187" lon="-0.90036">
        <ele>125</ele>
        <time>2023-05-08T21:26:10Z</time>
      </trkpt>
      <trkpt lat="47.0181" lon="-0.90037">
        <ele>125</ele>
        <time>2023-05-08T21:26:21Z</time>
      </trkpt>
      <trkpt lat="47.01812" lon="-0.90012">
        <ele>126</ele>
        <time>2023-05-08T21:26:24Z</time>
      </trkpt>
      <trkpt lat="47.0182" lon="-0.89994">
        <ele>126</ele>
        <time>2023-05-08T21:26:26Z</time>
      </trkpt>
      <trkpt lat="47.01866" lon="-0.89887">
        <ele>128</ele>
        <time>2023-05-08T21:26:42Z</time>
      </trkpt>
      <trkpt lat="47.01908" lon="-0.89797">
        <ele>131</ele>
        <time>2023-05-08T21:26:55Z</time>
      </trkpt>
      <trkpt lat="47.01952" lon="-0.89749">
        <ele>135</ele>
        <time>2023-05-08T21:27:05Z</time>
      </trkpt>
      <trkpt lat="47.02114" lon="-0.89604">
        <ele>136</ele>
        <time>2023-05-08T21:27:38Z</time>
      </trkpt>
      <trkpt lat="47.02186" lon="-0.89543">
        <ele>132</ele>
        <time>2023-05-08T21:27:53Z</time>
      </trkpt>
      <trkpt lat="47.02434" lon="-0.89323">
        <ele>123</ele>
        <time>2023-05-08T21:28:45Z</time>
      </trkpt>
      <trkpt lat="47.02502" lon="-0.89267">
        <ele>123</ele>
        <time>2023-05-08T21:28:59Z</time>
      </trkpt>
      <trkpt lat="47.02533" lon="-0.89253">
        <ele>123</ele>
        <time>2023-05-08T21:29:04Z</time>
      </trkpt>
      <trkpt lat="47.02583" lon="-0.89236">
        <ele>125</ele>
        <time>2023-05-08T21:29:13Z</time>
      </trkpt>
      <trkpt lat="47.02841" lon="-0.89157">
        <ele>124</ele>
        <time>2023-05-08T21:30:00Z</time>
      </trkpt>
      <trkpt lat="47.02885" lon="-0.89143">
        <ele>125</ele>
        <time>2023-05-08T21:30:08Z</time>
      </trkpt>
      <trkpt lat="47.0295" lon="-0.8912">
        <ele>124</ele>
        <time>2023-05-08T21:30:20Z</time>
      </trkpt>
      <trkpt lat="47.02981" lon="-0.89113">
        <ele>124</ele>
        <time>2023-05-08T21:30:26Z</time>
      </trkpt>
      <trkpt lat="47.0322" lon="-0.89017">
        <ele>113</ele>
        <time>2023-05-08T21:31:10Z</time>
      </trkpt>
      <trkpt lat="47.03294" lon="-0.8899">
        <ele>111</ele>
        <time>2023-05-08T21:31:24Z</time>
      </trkpt>
      <trkpt lat="47.03364" lon="-0.88973">
        <ele>109</ele>
        <time>2023-05-08T21:31:36Z</time>
      </trkpt>
      <trkpt lat="47.03381" lon="-0.88965">
        <ele>109</ele>
        <time>2023-05-08T21:31:39Z</time>
      </trkpt>
      <trkpt lat="47.03448" lon="-0.88917">
        <ele>110</ele>
        <time>2023-05-08T21:31:53Z</time>
      </trkpt>
      <trkpt lat="47.03477" lon="-0.88904">
        <ele>110</ele>
        <time>2023-05-08T21:31:58Z</time>
      </trkpt>
      <trkpt lat="47.03534" lon="-0.88874">
        <ele>111</ele>
        <time>2023-05-08T21:32:09Z</time>
      </trkpt>
      <trkpt lat="47.03771" lon="-0.88685">
        <ele>114</ele>
        <time>2023-05-08T21:32:57Z</time>
      </trkpt>
      <trkpt lat="47.03911" lon="-0.88582">
        <ele>113</ele>
        <time>2023-05-08T21:33:25Z</time>
      </trkpt>
      <trkpt lat="47.03925" lon="-0.88551">
        <ele>113</ele>
        <time>2023-05-08T21:33:29Z</time>
      </trkpt>
      <trkpt lat="47.03918" lon="-0.88547">
        <ele>113</ele>
        <time>2023-05-08T21:33:30Z</time>
      </trkpt>
      <trkpt lat="47.03913" lon="-0.8854">
        <ele>113</ele>
        <time>2023-05-08T21:33:32Z</time>
      </trkpt>
      <trkpt lat="47.0391" lon="-0.88531">
        <ele>113</ele>
        <time>2023-05-08T21:33:33Z</time>
      </trkpt>
      <trkpt lat="47.03909" lon="-0.88521">
        <ele>113</ele>
        <time>2023-05-08T21:33:34Z</time>
      </trkpt>
      <trkpt lat="47.0391" lon="-0.88511">
        <ele>113</ele>
        <time>2023-05-08T21:33:35Z</time>
      </trkpt>
      <trkpt lat="47.03913" lon="-0.88502">
        <ele>113</ele>
        <time>2023-05-08T21:33:37Z</time>
      </trkpt>
      <trkpt lat="47.03919" lon="-0.88495">
        <ele>113</ele>
        <time>2023-05-08T21:33:38Z</time>
      </trkpt>
      <trkpt lat="47.03925" lon="-0.88491">
        <ele>113</ele>
        <time>2023-05-08T21:33:39Z</time>
      </trkpt>
      <trkpt lat="47.03932" lon="-0.88491">
        <ele>113</ele>
        <time>2023-05-08T21:33:40Z</time>
      </trkpt>
      <trkpt lat="47.03939" lon="-0.88493">
        <ele>113</ele>
        <time>2023-05-08T21:33:42Z</time>
      </trkpt>
      <trkpt lat="47.03945" lon="-0.88499">
        <ele>113</ele>
        <time>2023-05-08T21:33:43Z</time>
      </trkpt>
      <trkpt lat="47.03949" lon="-0.88508">
        <ele>113</ele>
        <time>2023-05-08T21:33:44Z</time>
      </trkpt>
      <trkpt lat="47.03951" lon="-0.88518">
        <ele>113</ele>
        <time>2023-05-08T21:33:45Z</time>
      </trkpt>
      <trkpt lat="47.04008" lon="-0.88509">
        <ele>112</ele>
        <time>2023-05-08T21:33:56Z</time>
      </trkpt>
      <trkpt lat="47.04077" lon="-0.88503">
        <ele>111</ele>
        <time>2023-05-08T21:34:08Z</time>
      </trkpt>
      <trkpt lat="47.04159" lon="-0.88508">
        <ele>107</ele>
        <time>2023-05-08T21:34:23Z</time>
      </trkpt>
      <trkpt lat="47.04206" lon="-0.88515">
        <ele>106</ele>
        <time>2023-05-08T21:34:31Z</time>
      </trkpt>
      <trkpt lat="47.042" lon="-0.88572">
        <ele>106</ele>
        <time>2023-05-08T21:34:38Z</time>
      </trkpt>
      <trkpt lat="47.04144" lon="-0.88568">
        <ele>108</ele>
        <time>2023-05-08T21:34:48Z</time>
      </trkpt>
      <trkpt lat="47.04136" lon="-0.88569">
        <ele>108</ele>
        <time>2023-05-08T21:34:49Z</time>
      </trkpt>
      <trkpt lat="47.04132" lon="-0.88573">
        <ele>109</ele>
        <time>2023-05-08T21:34:50Z</time>
      </trkpt>
      <trkpt lat="47.04129" lon="-0.88584">
        <ele>109</ele>
        <time>2023-05-08T21:34:52Z</time>
      </trkpt>
      <trkpt lat="47.04127" lon="-0.88628">
        <ele>109</ele>
        <time>2023-05-08T21:34:57Z</time>
      </trkpt>
      <trkpt lat="47.04125" lon="-0.88637">
        <ele>109</ele>
        <time>2023-05-08T21:34:58Z</time>
      </trkpt>
      <trkpt lat="47.04121" lon="-0.88648">
        <ele>109</ele>
        <time>2023-05-08T21:35:00Z</time>
      </trkpt>
    </trkseg>
  </trk>
</gpx>